DW7984 Weather Reports


Display with metric or nautical units.
time (UTC)temp
F
wind
direction
speed
MPH
gust
MPH
rain 1hr
in
rain 24hr
in
rain mn
in
humidity
%
barometer
mb
20260510230832 58 296 1.0 4.0 0.00 0.01 0.00 80 1046.5
20260510230734 58 296 1.0 4.0 0.00 0.01 0.00 80 1046.5
20260510230710 58 295 1.0 4.0 0.00 0.01 0.00 80 1046.5
20260510230657 58 295 1.0 4.0 0.00 0.01 0.00 80 1046.5
20260510230332 58 295 1.0 4.0 0.00 0.01 0.00 80 1046.6
20260510230238 58 295 1.0 4.0 0.00 0.01 0.00 80 1046.5
20260510230226 58 296 1.0 4.0 0.00 0.01 0.00 80 1046.5
20260510230126 58 295 1.0 4.0 0.00 0.01 0.00 80 1046.5
20260510230101 58 295 1.0 4.0 0.00 0.01 0.00 80 1046.5
20260510230051 58 295 1.0 4.0 0.00 0.01 0.00 80 1046.5
20260510225735 58 295 2.0 4.0 0.00 0.01 0.00 80 1046.6
20260510225722 58 295 2.0 5.0 0.00 0.01 0.00 80 1046.6
20260510225622 58 295 2.0 5.0 0.00 0.01 0.00 80 1046.7
20260510225523 58 295 2.0 5.0 0.00 0.01 0.00 80 1046.6
20260510225422 58 295 2.0 5.0 0.00 0.01 0.00 79 1046.7
20260510225402 58 295 2.0 7.0 0.00 0.01 0.00 79 1046.6
20260510225344 58 295 2.0 7.0 0.00 0.01 0.00 79 1046.5
20260510225046 58 295 2.0 7.0 0.00 0.01 0.00 79 1046.5
20260510225036 58 295 2.0 7.0 0.00 0.01 0.00 79 1046.4
20260510225025 58 295 2.0 7.0 0.00 0.01 0.00 79 1046.4
20260510225007 58 295 2.0 7.0 0.00 0.01 0.00 79 1046.4
20260510224745 58 295 2.0 7.0 0.00 0.01 0.00 79 1046.4
20260510224421 58 294 2.0 7.0 0.00 0.01 0.00 79 1046.4
20260510224326 58 292 2.0 7.0 0.00 0.01 0.00 79 1046.4
20260510224303 58 292 2.0 7.0 0.00 0.01 0.00 79 1046.5
20260510224254 58 291 3.0 7.0 0.00 0.01 0.00 79 1046.5
20260510223917 58 291 3.0 8.0 0.00 0.01 0.00 79 1046.4
20260510223817 58 291 3.0 8.0 0.00 0.01 0.00 79 1046.4
20260510223718 58 291 3.0 8.0 0.00 0.01 0.00 79 1046.4
20260510223658 58 292 3.0 8.0 0.00 0.01 0.00 79 1046.3
20260510223648 58 293 3.0 8.0 0.00 0.01 0.00 79 1046.3
20260510223640 59 293 3.0 8.0 0.00 0.01 0.00 79 1046.2
20260510223632 59 294 3.0 8.0 0.00 0.01 0.00 79 1046.2
20260510223622 59 294 3.0 8.0 0.00 0.01 0.00 79 1046.2
20260510223611 59 293 3.0 8.0 0.00 0.01 0.00 79 1046.2
20260510222815 59 295 3.0 7.0 0.00 0.01 0.00 78 1046.2
20260510222732 59 295 3.0 7.0 0.00 0.01 0.00 78 1046.1
20260510222715 59 294 3.0 7.0 0.00 0.01 0.00 78 1046.1
20260510222615 59 295 3.0 7.0 0.00 0.01 0.00 78 1046.1
20260510222520 59 295 3.0 7.0 0.00 0.01 0.00 78 1046.2
20260510222453 59 294 3.0 7.0 0.00 0.01 0.00 78 1046.2
20260510222442 59 289 3.0 8.0 0.00 0.01 0.00 78 1046.2
20260510222432 59 287 3.0 8.0 0.00 0.01 0.00 78 1046.1
20260510222154 59 283 3.0 8.0 0.00 0.01 0.00 78 1046.1
20260510222148 59 283 3.0 8.0 0.00 0.01 0.00 78 1046.2
20260510222134 59 283 3.0 8.0 0.00 0.01 0.00 78 1046.1
20260510221902 59 283 3.0 8.0 0.00 0.01 0.00 78 1046.1
20260510221849 59 282 3.0 8.0 0.00 0.01 0.00 78 1046.1
20260510221841 59 282 3.0 8.0 0.00 0.01 0.00 78 1046.1
20260510221611 59 281 3.0 8.0 0.00 0.01 0.00 78 1046.0
20260510221601 59 291 3.0 8.0 0.00 0.01 0.00 78 1046.1
20260510221550 59 292 3.0 8.0 0.00 0.01 0.00 78 1046.1
20260510221024 59 291 3.0 8.0 0.00 0.01 0.00 78 1046.2
20260510220905 59 291 3.0 8.0 0.00 0.01 0.00 78 1046.2
20260510220846 59 291 3.0 8.0 0.00 0.01 0.00 78 1046.2
20260510220824 60 291 3.0 8.0 0.00 0.01 0.00 78 1046.2
20260510220533 60 291 3.0 8.0 0.00 0.01 0.00 78 1046.2
20260510220525 60 291 3.0 8.0 0.00 0.01 0.00 78 1046.2
20260510220241 60 294 3.0 8.0 0.00 0.01 0.00 78 1046.2
20260510220233 60 313 3.0 8.0 0.00 0.01 0.00 78 1046.2
20260510220220 60 312 3.0 11.0 0.00 0.01 0.00 77 1046.2
20260510220208 60 312 3.0 11.0 0.00 0.01 0.01 77 1046.2
20260510220156 60 329 3.0 11.0 0.00 0.01 0.01 77 1046.2
20260510215928 60 329 3.0 11.0 0.00 0.01 0.01 77 1046.2
20260510215558 60 298 3.0 11.0 0.00 0.01 0.01 77 1046.1
20260510215458 60 298 3.0 11.0 0.00 0.01 0.01 77 1046.1
20260510215356 60 298 4.0 11.0 0.00 0.01 0.01 77 1046.1
20260510215256 60 298 4.0 11.0 0.00 0.01 0.01 77 1046.2
20260510215232 60 298 4.0 11.0 0.00 0.01 0.01 77 1046.1
20260510215155 60 295 4.0 11.0 0.00 0.01 0.01 77 1046.1
20260510215055 60 330 4.0 9.0 0.00 0.01 0.01 77 1046.2
20260510215027 60 330 3.0 9.0 0.00 0.01 0.01 77 1046.2
20260510215018 60 331 3.0 9.0 0.00 0.01 0.01 77 1046.3
20260510214730 60 306 3.0 9.0 0.00 0.01 0.01 77 1046.3
20260510214653 60 329 3.0 9.0 0.00 0.01 0.01 77 1046.3
20260510214552 60 328 3.0 9.0 0.00 0.01 0.01 77 1046.3
20260510214530 60 331 3.0 9.0 0.00 0.01 0.01 77 1046.3
20260510214517 60 289 3.0 9.0 0.00 0.01 0.01 77 1046.4
20260510214230 60 319 3.0 8.0 0.00 0.01 0.01 77 1046.4
20260510214149 60 319 3.0 8.0 0.00 0.01 0.01 77 1046.4
20260510214049 60 324 2.0 8.0 0.00 0.01 0.01 77 1046.4
20260510214027 60 322 3.0 8.0 0.00 0.01 0.01 77 1046.5
20260510214021 60 322 3.0 8.0 0.00 0.01 0.01 77 1046.5
20260510214005 60 321 3.0 8.0 0.00 0.01 0.01 77 1046.5
20260510213643 60 322 3.0 8.0 0.00 0.01 0.01 77 1046.6
20260510213544 60 321 3.0 9.0 0.00 0.01 0.01 77 1046.6
20260510213443 60 319 3.0 9.0 0.00 0.01 0.01 77 1046.7
20260510213337 60 318 3.0 9.0 0.00 0.01 0.01 77 1046.7
20260510213306 60 324 3.0 9.0 0.00 0.01 0.01 77 1046.7
20260510213259 60 325 3.0 9.0 0.00 0.01 0.01 77 1046.7
20260510213013 60 322 3.0 9.0 0.00 0.01 0.01 77 1046.8
20260510213003 60 323 3.0 9.0 0.00 0.01 0.01 77 1046.8
20260510212731 60 309 3.0 9.0 0.00 0.01 0.01 77 1046.8
20260510212652 61 310 3.0 9.0 0.00 0.01 0.01 77 1046.8
20260510212644 61 287 3.0 7.0 0.00 0.01 0.01 76 1046.8
20260510212632 61 287 3.0 7.0 0.00 0.01 0.01 76 1046.8
20260510212622 61 286 3.0 8.0 0.00 0.01 0.01 76 1046.7
20260510212613 61 286 3.0 8.0 0.00 0.01 0.01 76 1046.7
20260510212032 61 285 3.0 9.0 0.00 0.01 0.01 76 1046.8
20260510211932 61 284 4.0 9.0 0.00 0.01 0.01 76 1046.8
20260510211848 61 284 4.0 9.0 0.00 0.01 0.01 76 1046.8
20260510211831 61 284 4.0 9.0 0.00 0.01 0.01 76 1046.9
20260510211822 61 284 4.0 9.0 0.00 0.01 0.01 76 1046.8
20260510211814 61 284 4.0 9.0 0.00 0.01 0.01 76 1046.8
20260510211802 61 284 4.0 10.0 0.00 0.01 0.01 76 1046.7
20260510211748 61 286 4.0 10.0 0.00 0.01 0.01 76 1046.7
20260510211303 61 286 4.0 10.0 0.00 0.01 0.01 75 1046.8
20260510211027 61 293 3.0 10.0 0.00 0.01 0.01 75 1046.8
20260510211017 61 303 3.0 10.0 0.00 0.01 0.01 75 1046.8
20260510210955 61 318 3.0 10.0 0.00 0.01 0.01 75 1046.9
20260510210633 61 287 3.0 10.0 0.00 0.01 0.01 75 1046.9
20260510210531 61 271 3.0 10.0 0.00 0.01 0.01 75 1047.0
20260510210455 61 276 3.0 9.0 0.00 0.01 0.01 75 1047.0
20260510210445 61 287 3.0 9.0 0.00 0.01 0.01 75 1047.0
20260510210431 61 286 3.0 9.0 0.00 0.01 0.01 75 1047.1
20260510210415 61 292 3.0 9.0 0.00 0.01 0.01 75 1047.1
20260510210405 61 278 3.0 9.0 0.00 0.01 0.01 75 1047.1
20260510210356 61 278 4.0 9.0 0.00 0.01 0.01 75 1047.2
20260510210348 61 278 4.0 10.0 0.00 0.01 0.01 75 1047.1
20260510210122 61 303 4.0 12.0 0.00 0.01 0.01 75 1047.1
20260510205849 61 303 5.0 15.0 0.00 0.01 0.01 75 1047.1
20260510205841 61 309 5.0 15.0 0.00 0.01 0.01 75 1047.1
20260510205833 61 305 5.0 15.0 0.00 0.01 0.01 75 1047.0
20260510205609 61 310 5.0 15.0 0.00 0.01 0.01 76 1047.1
20260510205553 61 308 5.0 15.0 0.00 0.01 0.01 75 1047.1
20260510205058 61 328 5.0 15.0 0.00 0.01 0.01 76 1047.1
20260510205042 61 295 5.0 15.0 0.00 0.01 0.01 76 1047.1
20260510205032 61 320 5.0 13.0 0.00 0.01 0.01 76 1047.1
20260510205024 61 322 5.0 13.0 0.00 0.01 0.01 76 1047.1
20260510205011 61 270 5.0 13.0 0.00 0.01 0.01 76 1047.1
20260510205001 61 284 6.0 13.0 0.00 0.01 0.01 76 1047.0
20260510204732 61 314 6.0 14.0 0.00 0.01 0.01 76 1047.1
20260510204722 61 285 6.0 14.0 0.00 0.01 0.01 76 1047.0
20260510204451 61 300 6.0 14.0 0.00 0.01 0.01 75 1047.0
20260510204445 61 300 6.0 14.0 0.00 0.01 0.01 75 1047.1
20260510204424 61 299 6.0 14.0 0.00 0.01 0.01 75 1047.1
20260510204204 61 301 6.0 14.0 0.00 0.01 0.01 75 1047.1
20260510203935 61 287 6.0 14.0 0.00 0.01 0.01 75 1047.2
20260510203141 61 312 5.0 11.0 0.00 0.01 0.01 75 1047.0
20260510203134 61 289 5.0 11.0 0.00 0.01 0.01 75 1047.0
20260510203120 61 305 5.0 11.0 0.00 0.01 0.01 75 1047.0
20260510203112 61 306 5.0 11.0 0.00 0.01 0.01 75 1046.9
20260510202844 61 292 5.0 11.0 0.00 0.01 0.01 75 1046.9
20260510202520 61 289 4.0 10.0 0.00 0.01 0.01 75 1046.9
20260510202419 61 274 4.0 10.0 0.00 0.01 0.01 75 1046.8
20260510202319 62 288 4.0 10.0 0.00 0.01 0.01 74 1046.8
20260510202235 62 288 4.0 10.0 0.00 0.01 0.01 74 1046.8
20260510202222 62 299 4.0 10.0 0.00 0.01 0.01 74 1046.8
20260510202116 62 280 3.0 10.0 0.00 0.01 0.01 74 1046.8
20260510202047 62 301 3.0 8.0 0.00 0.01 0.01 74 1046.8
20260510202038 62 299 2.0 8.0 0.00 0.01 0.01 74 1046.8
20260510201715 62 295 2.0 8.0 0.00 0.01 0.01 75 1046.8
20260510201616 62 292 1.0 8.0 0.00 0.01 0.01 75 1046.8
20260510201515 62 274 1.0 4.0 0.00 0.01 0.01 75 1046.8
20260510201416 62 274 1.0 4.0 0.00 0.01 0.01 75 1046.8
20260510201315 62 274 1.0 4.0 0.00 0.01 0.01 75 1046.8
20260510201215 62 274 1.0 4.0 0.00 0.01 0.01 75 1046.8
20260510201116 62 274 1.0 4.0 0.00 0.01 0.01 75 1046.8
20260510201030 62 274 1.0 4.0 0.00 0.01 0.01 75 1046.7
20260510201006 62 274 1.0 4.0 0.00 0.01 0.01 75 1046.7
20260510200957 62 273 1.0 4.0 0.00 0.01 0.01 75 1046.7
20260510200945 62 273 1.0 4.0 0.00 0.01 0.01 75 1046.7
20260510200719 62 274 1.0 4.0 0.00 0.01 0.01 74 1046.7
20260510200706 62 274 1.0 4.0 0.00 0.01 0.01 74 1046.7
20260510200644 62 274 1.0 4.0 0.00 0.01 0.01 75 1046.8
20260510200636 62 273 2.0 4.0 0.00 0.01 0.01 75 1046.8
20260510200406 62 273 2.0 4.0 0.00 0.01 0.01 74 1046.7
20260510200138 62 274 2.0 4.0 0.00 0.01 0.01 74 1046.7
20260510195835 62 274 2.0 8.0 0.00 0.01 0.01 74 1046.7
20260510195816 62 274 2.0 8.0 0.00 0.01 0.01 74 1046.7
20260510195800 62 270 2.0 8.0 0.00 0.01 0.01 74 1046.7
20260510195532 62 263 2.0 8.0 0.00 0.01 0.01 74 1046.7
20260510195230 63 262 3.0 9.0 0.00 0.01 0.01 75 1046.8
20260510195209 63 262 3.0 9.0 0.00 0.01 0.01 74 1046.8
20260510195110 63 262 3.0 9.0 0.00 0.01 0.01 74 1046.7
20260510195009 63 262 3.0 9.0 0.00 0.01 0.01 74 1046.7
20260510194909 63 277 3.0 9.0 0.00 0.01 0.01 74 1046.7
20260510194852 63 256 3.0 9.0 0.00 0.01 0.01 74 1046.7
20260510194841 63 259 3.0 9.0 0.00 0.01 0.01 74 1046.7
20260510194834 63 258 3.0 9.0 0.00 0.01 0.01 74 1046.7
20260510194509 63 258 3.0 9.0 0.00 0.01 0.01 74 1046.6
20260510194412 63 186 3.0 9.0 0.00 0.01 0.01 74 1046.6
20260510194402 63 314 3.0 9.0 0.00 0.01 0.01 74 1046.5
20260510194350 63 327 2.0 8.0 0.00 0.01 0.01 74 1046.6
20260510194342 63 327 2.0 8.0 0.00 0.01 0.01 73 1046.6
20260510194010 63 327 2.0 8.0 0.00 0.01 0.01 73 1046.5
20260510193950 63 329 2.0 8.0 0.00 0.01 0.01 73 1046.5
20260510193942 63 330 2.0 8.0 0.00 0.01 0.01 73 1046.4
20260510193929 63 327 2.0 6.0 0.00 0.01 0.01 73 1046.3
20260510193609 63 285 2.0 6.0 0.00 0.01 0.01 73 1046.4
20260510193510 63 285 2.0 6.0 0.00 0.01 0.01 73 1046.3
20260510193409 63 285 2.0 6.0 0.00 0.01 0.01 73 1046.2
20260510193312 63 285 2.0 6.0 0.00 0.01 0.01 73 1046.2
20260510193224 63 285 2.0 6.0 0.00 0.01 0.01 72 1046.2
20260510193216 63 285 2.0 6.0 0.00 0.01 0.01 72 1046.1
20260510193200 63 285 2.0 7.0 0.00 0.01 0.01 72 1046.2
20260510193150 63 285 2.0 7.0 0.00 0.01 0.01 72 1046.1
20260510193142 64 227 2.0 7.0 0.00 0.01 0.01 72 1046.2
20260510192908 64 209 2.0 7.0 0.00 0.01 0.01 72 1046.1
20260510192636 64 264 2.0 7.0 0.00 0.01 0.01 71 1046.2
20260510192309 64 264 2.0 8.0 0.00 0.01 0.01 72 1046.3
20260510192236 64 264 2.0 8.0 0.00 0.01 0.01 71 1046.3
20260510192229 64 264 3.0 8.0 0.00 0.01 0.01 71 1046.3
20260510191906 64 302 3.0 8.0 0.00 0.01 0.01 71 1046.3
20260510191805 64 301 3.0 8.0 0.00 0.01 0.01 71 1046.4
20260510191707 64 301 2.0 8.0 0.00 0.01 0.01 71 1046.4
20260510191657 64 307 2.0 8.0 0.00 0.01 0.01 71 1046.4
20260510191644 64 306 2.0 8.0 0.00 0.01 0.01 71 1046.4
20260510191626 64 257 2.0 7.0 0.00 0.01 0.01 71 1046.4
20260510191618 64 256 1.0 7.0 0.00 0.01 0.01 72 1046.3
20260510191607 64 256 1.0 7.0 0.00 0.01 0.01 72 1046.3
20260510191555 64 257 1.0 7.0 0.00 0.01 0.01 72 1046.3
20260510191549 64 256 1.0 7.0 0.00 0.01 0.01 72 1046.3
20260510191318 64 256 1.0 6.0 0.00 0.01 0.01 72 1046.3
20260510190831 64 256 1.0 6.0 0.00 0.01 0.01 71 1046.2
20260510190815 64 256 2.0 6.0 0.00 0.01 0.01 71 1046.2
20260510190803 64 256 2.0 7.0 0.00 0.01 0.01 71 1046.1
20260510190225 64 256 3.0 9.0 0.00 0.01 0.01 71 1046.2
20260510190211 64 256 3.0 9.0 0.00 0.01 0.01 70 1046.2
20260510190202 64 256 3.0 9.0 0.00 0.01 0.01 70 1046.2
20260510190153 64 256 3.0 9.0 0.00 0.01 0.01 70 1046.2
20260510190138 64 256 3.0 9.0 0.00 0.01 0.01 70 1046.2
20260510190129 64 256 3.0 9.0 0.00 0.01 0.01 70 1046.3
20260510190119 64 256 3.0 9.0 0.00 0.01 0.01 70 1046.2
20260510185626 65 256 3.0 9.0 0.00 0.01 0.01 70 1046.2
20260510185618 65 256 3.0 9.0 0.00 0.01 0.01 70 1046.2
20260510185606 65 256 3.0 9.0 0.00 0.01 0.01 70 1046.2
20260510185555 65 257 3.0 9.0 0.00 0.01 0.01 70 1046.2
20260510185547 65 256 3.0 9.0 0.00 0.01 0.01 70 1046.2
20260510185539 65 256 3.0 9.0 0.00 0.01 0.01 70 1046.2
20260510185526 65 256 3.0 9.0 0.00 0.01 0.01 69 1046.2
20260510185519 65 257 4.0 9.0 0.00 0.01 0.01 69 1046.2
20260510185508 65 257 4.0 9.0 0.00 0.01 0.01 69 1046.2
20260510185457 65 258 4.0 9.0 0.00 0.01 0.01 69 1046.2
20260510185230 65 257 5.0 9.0 0.00 0.01 0.01 69 1046.2
20260510185218 65 257 5.0 12.0 0.00 0.01 0.01 69 1046.1
20260510184948 65 274 5.0 12.0 0.00 0.01 0.01 68 1046.1
20260510184718 65 278 5.0 12.0 0.00 0.01 0.01 68 1046.1
20260510184710 65 278 6.0 12.0 0.00 0.01 0.01 68 1046.2
20260510184443 65 233 6.0 12.0 0.00 0.01 0.01 68 1046.1
20260510184215 65 270 6.0 12.0 0.00 0.01 0.01 68 1046.1
20260510184206 65 270 6.0 15.0 0.00 0.01 0.01 67 1046.1
20260510183455 65 276 6.0 15.0 0.00 0.01 0.01 66 1046.0
20260510183133 65 228 6.0 15.0 0.00 0.01 0.01 66 1046.0
20260510183031 65 226 6.0 15.0 0.00 0.01 0.01 66 1046.0
20260510182928 66 218 6.0 15.0 0.00 0.01 0.01 65 1046.0
20260510182824 66 253 6.0 15.0 0.00 0.01 0.01 65 1045.9
20260510182722 66 249 5.0 15.0 0.00 0.01 0.01 64 1045.9
20260510182656 66 254 5.0 14.0 0.00 0.01 0.01 63 1045.8
20260510182648 66 219 5.0 14.0 0.00 0.01 0.01 63 1045.9
20260510182323 66 216 4.0 12.0 0.00 0.01 0.01 61 1045.9
20260510182223 66 222 4.0 12.0 0.00 0.01 0.01 61 1045.9
20260510182121 66 222 4.0 12.0 0.00 0.01 0.01 60 1045.9
20260510182023 66 258 4.0 12.0 0.00 0.01 0.01 60 1045.8
20260510181924 66 236 4.0 12.0 0.00 0.01 0.01 59 1045.9
20260510181820 66 204 4.0 12.0 0.00 0.01 0.01 59 1045.8
20260510181721 66 201 3.0 12.0 0.00 0.01 0.01 58 1045.8
20260510181621 66 241 3.0 12.0 0.00 0.01 0.01 58 1045.8
20260510181545 66 249 3.0 7.0 0.00 0.01 0.01 58 1045.8
20260510181537 66 250 3.0 7.0 0.00 0.01 0.01 57 1045.8
20260510181525 66 253 3.0 7.0 0.00 0.01 0.01 57 1045.8
20260510181259 66 253 3.0 7.0 0.00 0.01 0.01 56 1045.8
20260510181248 67 253 3.0 7.0 0.00 0.01 0.01 56 1045.8
20260510180915 67 253 3.0 7.0 0.00 0.01 0.01 55 1045.8
20260510180815 67 253 4.0 9.0 0.00 0.01 0.01 55 1045.7
20260510180752 67 256 4.0 10.0 0.00 0.01 0.01 55 1045.7
20260510180743 67 255 4.0 10.0 0.00 0.01 0.01 55 1045.7
20260510180737 67 256 4.0 10.0 0.00 0.01 0.01 55 1045.8
20260510180422 67 256 3.0 10.0 0.00 0.01 0.01 54 1045.8
20260510180309 67 258 3.0 10.0 0.00 0.01 0.01 54 1045.8
20260510180220 67 252 3.0 10.0 0.00 0.01 0.01 54 1045.7
20260510180209 67 210 3.0 10.0 0.00 0.01 0.01 54 1045.7
20260510180109 67 210 3.0 10.0 0.00 0.01 0.01 54 1045.7
20260510180010 67 209 3.0 10.0 0.00 0.01 0.01 54 1045.7
20260510175956 67 209 3.0 10.0 0.00 0.01 0.01 54 1045.6
20260510175945 67 231 3.0 8.0 0.00 0.01 0.01 54 1045.6
20260510175707 67 240 3.0 8.0 0.00 0.01 0.01 54 1045.5
20260510175607 67 239 3.0 8.0 0.00 0.01 0.01 54 1045.4
20260510175505 67 241 3.0 8.0 0.00 0.01 0.01 54 1045.4
20260510175404 67 241 3.0 8.0 0.00 0.01 0.01 54 1045.4
20260510175306 67 241 3.0 8.0 0.00 0.01 0.01 53 1045.4
20260510175221 68 241 3.0 8.0 0.00 0.01 0.01 54 1045.4
20260510175211 68 239 3.0 8.0 0.00 0.01 0.01 53 1045.4
20260510175200 68 241 3.0 8.0 0.00 0.01 0.01 53 1045.4
20260510175151 68 239 3.0 8.0 0.00 0.01 0.01 54 1045.4
20260510175144 68 228 3.0 8.0 0.00 0.01 0.01 55 1045.4
20260510174618 68 212 3.0 6.0 0.00 0.01 0.01 55 1045.2
20260510174609 68 212 3.0 6.0 0.00 0.01 0.01 55 1045.4
20260510174558 68 212 3.0 6.0 0.00 0.01 0.01 55 1045.4
20260510174548 68 202 3.0 7.0 0.00 0.01 0.01 55 1045.2
20260510174320 68 201 4.0 7.0 0.00 0.01 0.01 55 1045.2
20260510174027 68 201 4.0 8.0 0.00 0.01 0.01 54 1045.2
20260510174012 68 201 4.0 8.0 0.00 0.01 0.01 54 1045.2
20260510173713 68 200 4.0 8.0 0.00 0.01 0.01 54 1045.2
20260510173652 68 200 4.0 8.0 0.00 0.01 0.01 54 1045.2
20260510173553 68 199 4.0 8.0 0.00 0.01 0.01 53 1045.2
20260510173506 68 199 4.0 8.0 0.00 0.01 0.01 53 1045.2
20260510173400 68 197 4.0 10.0 0.00 0.01 0.01 53 1045.2
20260510173337 69 249 4.0 10.0 0.00 0.01 0.01 53 1045.2
20260510173327 69 229 4.0 10.0 0.00 0.01 0.01 53 1045.1
20260510173320 69 227 4.0 10.0 0.00 0.01 0.01 53 1045.1
20260510173307 69 209 4.0 10.0 0.00 0.01 0.01 53 1045.1
20260510173258 69 210 5.0 12.0 0.00 0.06 0.01 53 1045.1
20260510173032 69 210 5.0 12.0 0.00 0.06 0.01 53 1045.0
20260510173022 69 209 5.0 12.0 0.00 0.06 0.01 53 1045.0
20260510173007 69 208 5.0 12.0 0.00 0.06 0.01 53 1045.0
20260510173000 69 208 5.0 12.0 0.00 0.06 0.01 53 1045.0
20260510172513 69 216 5.0 12.0 0.00 0.06 0.01 55 1044.9
20260510172502 69 215 5.0 12.0 0.00 0.06 0.01 55 1044.9
20260510172454 69 216 5.0 12.0 0.00 0.06 0.01 55 1044.9
20260510172446 69 216 5.0 12.0 0.00 0.06 0.01 56 1044.9
20260510172438 69 210 5.0 12.0 0.00 0.06 0.01 57 1044.9
20260510172428 69 210 5.0 12.0 0.00 0.06 0.01 57 1044.9
20260510172156 69 191 6.0 16.0 0.00 0.06 0.01 57 1044.9
20260510172145 69 187 6.0 16.0 0.00 0.06 0.01 56 1044.9
20260510171703 69 262 6.0 16.0 0.00 0.06 0.01 56 1044.9
20260510171211 69 159 7.0 16.0 0.00 0.06 0.01 56 1045.0
20260510171202 69 245 7.0 16.0 0.00 0.06 0.01 56 1045.0
20260510171146 69 220 7.0 16.0 0.00 0.06 0.01 55 1045.0
20260510171136 69 212 7.0 16.0 0.00 0.06 0.01 55 1045.0
20260510170911 70 204 6.0 13.0 0.00 0.06 0.01 55 1045.0
20260510170544 70 179 6.0 12.0 0.00 0.06 0.01 54 1044.9
20260510170442 70 214 6.0 12.0 0.00 0.06 0.01 54 1045.0
20260510170341 70 214 7.0 12.0 0.00 0.06 0.01 54 1044.9
20260510170241 70 199 7.0 16.0 0.00 0.06 0.01 53 1045.0
20260510170207 70 243 7.0 16.0 0.00 0.06 0.01 53 1045.0
20260510170143 70 207 7.0 16.0 0.00 0.06 0.01 52 1045.0
20260510170044 70 245 7.0 16.0 0.00 0.06 0.01 52 1044.9
20260510165955 70 157 7.0 16.0 0.00 0.07 0.01 51 1044.9
20260510165948 71 217 7.0 16.0 0.00 0.07 0.01 50 1044.9
20260510165936 71 164 7.0 16.0 0.00 0.07 0.01 49 1044.9
20260510165924 71 212 7.0 16.0 0.00 0.07 0.01 48 1044.9
20260510165702 71 244 7.0 16.0 0.00 0.07 0.01 47 1044.8
20260510165343 71 249 7.0 16.0 0.00 0.07 0.01 46 1044.8
20260510165240 71 198 7.0 14.0 0.00 0.07 0.01 46 1044.9
20260510165204 71 181 6.0 14.0 0.00 0.07 0.01 46 1044.9
20260510165141 71 176 6.0 14.0 0.00 0.07 0.01 46 1044.8
20260510165042 71 195 6.0 13.0 0.00 0.07 0.01 47 1044.8
20260510164944 71 203 6.0 13.0 0.00 0.07 0.01 48 1044.8
20260510164938 70 243 6.0 13.0 0.00 0.07 0.01 48 1044.8
20260510164925 70 206 6.0 13.0 0.00 0.07 0.01 47 1044.8
20260510164635 70 154 6.0 13.0 0.00 0.07 0.01 48 1044.9
20260510164534 70 191 6.0 13.0 0.00 0.07 0.01 48 1044.9
20260510164435 70 197 6.0 13.0 0.00 0.07 0.01 48 1044.9
20260510164334 70 180 6.0 13.0 0.00 0.07 0.01 48 1044.9
20260510164248 70 212 5.0 13.0 0.00 0.07 0.01 48 1044.9
20260510164232 70 178 5.0 13.0 0.00 0.07 0.01 48 1044.9
20260510164225 70 208 5.0 13.0 0.00 0.07 0.01 47 1044.9
20260510164216 71 225 5.0 13.0 0.00 0.08 0.01 47 1044.9
20260510163941 71 212 5.0 13.0 0.00 0.08 0.01 46 1044.9
20260510163926 71 266 5.0 13.0 0.00 0.08 0.01 46 1044.8
20260510163647 71 159 5.0 13.0 0.00 0.08 0.01 46 1044.8
20260510163638 71 270 5.0 15.0 0.00 0.08 0.01 47 1044.8
20260510163630 71 203 5.0 15.0 0.00 0.08 0.01 47 1044.9
20260510163616 71 194 6.0 15.0 0.00 0.09 0.01 47 1044.8
20260510163557 71 196 6.0 15.0 0.00 0.09 0.01 46 1044.8
20260510163333 71 158 7.0 15.0 0.00 0.09 0.01 47 1044.8
20260510163309 71 206 7.0 15.0 0.00 0.09 0.01 46 1044.8
20260510163258 71 228 7.0 15.0 0.00 0.09 0.01 47 1044.7
20260510163031 71 170 7.0 15.0 0.00 0.09 0.01 47 1044.7
20260510163025 71 160 8.0 15.0 0.00 0.09 0.01 47 1044.7
20260510162749 71 216 8.0 15.0 0.00 0.10 0.01 46 1044.8
20260510162517 72 216 8.0 15.0 0.00 0.11 0.01 46 1044.7
20260510162248 72 235 8.0 15.0 0.00 0.11 0.01 46 1044.7
20260510161927 72 227 8.0 15.0 0.00 0.12 0.01 46 1044.7
20260510161825 72 201 7.0 15.0 0.00 0.12 0.01 45 1044.7
20260510161725 72 204 8.0 15.0 0.00 0.12 0.01 46 1044.8
20260510161705 72 239 8.0 15.0 0.00 0.12 0.01 46 1044.8
20260510161625 72 194 7.0 15.0 0.00 0.12 0.01 46 1044.8
20260510161525 72 209 7.0 15.0 0.00 0.13 0.01 47 1044.7
20260510161425 72 206 6.0 15.0 0.00 0.13 0.01 47 1044.8
20260510161401 72 224 6.0 15.0 0.00 0.13 0.01 47 1044.7
20260510161354 72 228 6.0 15.0 0.00 0.13 0.01 48 1044.7
20260510161344 72 228 6.0 15.0 0.00 0.13 0.01 47 1044.7
20260510161327 72 231 6.0 15.0 0.00 0.13 0.01 47 1044.6
20260510161318 72 237 6.0 15.0 0.00 0.14 0.01 48 1044.6
20260510161309 72 259 6.0 15.0 0.00 0.15 0.01 48 1044.6
20260510161048 72 223 5.0 15.0 0.00 0.15 0.01 50 1044.7
20260510161037 72 233 5.0 15.0 0.00 0.15 0.01 50 1044.7
20260510161024 72 249 5.0 12.0 0.00 0.15 0.01 49 1044.6
20260510160533 71 184 6.0 12.0 0.00 0.17 0.01 50 1044.7
20260510160527 71 233 6.0 12.0 0.00 0.17 0.01 50 1044.7
20260510160258 71 214 6.0 12.0 0.00 0.17 0.01 49 1044.7
20260510155920 71 222 6.0 13.0 0.00 0.18 0.01 49 1044.7
20260510155821 71 218 7.0 16.0 0.00 0.18 0.01 49 1044.8
20260510155721 71 204 7.0 16.0 0.00 0.19 0.01 49 1044.7
20260510155704 71 217 7.0 16.0 0.00 0.19 0.01 49 1044.7
20260510155621 71 177 7.0 16.0 0.00 0.20 0.01 49 1044.8
20260510155519 71 250 7.0 16.0 0.00 0.20 0.01 50 1044.8
20260510155418 71 216 6.0 16.0 0.00 0.20 0.01 50 1044.8
20260510155322 71 161 6.0 16.0 0.00 0.20 0.01 50 1044.8
20260510155256 71 210 6.0 16.0 0.00 0.21 0.01 51 1044.8
20260510155245 71 195 6.0 16.0 0.00 0.21 0.01 51 1044.8
20260510155235 71 226 6.0 16.0 0.00 0.22 0.01 51 1044.8
20260510154916 71 228 7.0 16.0 0.00 0.23 0.01 52 1044.7
20260510154813 71 165 7.0 16.0 0.00 0.23 0.01 50 1044.7
20260510154715 71 194 7.0 16.0 0.00 0.23 0.01 51 1044.7
20260510154704 71 193 7.0 16.0 0.00 0.23 0.01 51 1044.7
20260510154606 71 207 7.0 16.0 0.00 0.24 0.01 51 1044.8
20260510154506 71 226 7.0 16.0 0.00 0.24 0.01 51 1044.8
20260510154446 71 229 8.0 16.0 0.00 0.24 0.01 51 1044.8
20260510154437 71 254 8.0 16.0 0.00 0.24 0.01 50 1044.8
20260510154101 71 172 7.0 16.0 0.00 0.26 0.01 50 1044.9
20260510154000 71 222 7.0 16.0 0.00 0.26 0.01 50 1044.8
20260510153900 71 162 7.0 17.0 0.00 0.27 0.01 50 1045.0
20260510153801 71 193 6.0 17.0 0.00 0.27 0.01 50 1044.9
20260510153717 71 205 6.0 17.0 0.00 0.28 0.01 51 1044.9
20260510153700 71 229 6.0 17.0 0.00 0.28 0.01 51 1044.9
20260510153632 71 226 7.0 17.0 0.00 0.28 0.01 51 1044.8
20260510153624 71 236 7.0 19.0 0.00 0.29 0.01 51 1044.8
20260510153300 71 185 7.0 19.0 0.00 0.30 0.01 52 1044.9
20260510153211 71 170 7.0 19.0 0.00 0.31 0.01 52 1044.9
20260510153158 71 165 7.0 19.0 0.00 0.31 0.01 52 1044.9
20260510153059 71 185 7.0 19.0 0.00 0.31 0.01 51 1044.9
20260510153032 71 178 7.0 19.0 0.00 0.31 0.01 52 1045.1
20260510153022 71 175 7.0 19.0 0.00 0.32 0.01 52 1045.0
20260510152730 71 206 7.0 19.0 0.00 0.34 0.01 52 1045.0
20260510152723 71 196 7.0 19.0 0.00 0.34 0.01 52 1045.0
20260510152717 71 217 6.0 19.0 0.00 0.34 0.01 54 1045.0
20260510152353 71 165 6.0 19.0 0.00 0.35 0.01 54 1044.9
20260510152255 70 231 7.0 19.0 0.00 0.35 0.01 54 1044.9
20260510152209 70 225 7.0 19.0 0.00 0.35 0.01 53 1044.9
20260510152153 70 247 7.0 19.0 0.00 0.35 0.01 53 1044.9
20260510152053 70 172 8.0 19.0 0.00 0.35 0.01 53 1044.9
20260510151953 71 185 8.0 19.0 0.00 0.36 0.01 54 1045.0
20260510151853 71 241 8.0 19.0 0.00 0.37 0.01 53 1045.0
20260510151752 71 191 8.0 19.0 0.00 0.37 0.01 52 1045.0
20260510151704 71 189 8.0 19.0 0.00 0.38 0.01 53 1045.1
20260510151653 71 179 8.0 19.0 0.00 0.38 0.01 53 1045.1
20260510151552 71 200 8.0 19.0 0.00 0.38 0.01 53 1044.9
20260510151526 71 173 8.0 19.0 0.00 0.39 0.01 53 1045.0
20260510151518 71 122 8.0 16.0 0.00 0.39 0.01 53 1044.9
20260510151211 71 222 8.0 16.0 0.00 0.39 0.01 52 1045.0
20260510151154 71 217 8.0 16.0 0.00 0.39 0.01 52 1045.0
20260510151052 71 216 7.0 16.0 0.00 0.39 0.01 52 1045.1
20260510150953 71 203 7.0 16.0 0.00 0.39 0.01 53 1045.1
20260510150935 71 183 7.0 16.0 0.00 0.39 0.01 53 1045.1
20260510150928 71 182 8.0 16.0 0.00 0.39 0.01 52 1045.1
20260510150918 71 181 8.0 16.0 0.00 0.39 0.01 53 1045.1
20260510150548 71 236 8.0 16.0 0.00 0.39 0.01 52 1045.1
20260510150521 71 223 8.0 16.0 0.00 0.39 0.01 52 1045.2
20260510150513 71 216 7.0 16.0 0.00 0.39 0.01 53 1045.2
20260510150204 71 210 7.0 16.0 0.00 0.39 0.01 53 1045.2
20260510150143 71 231 7.0 16.0 0.00 0.39 0.01 53 1045.1
20260510150043 71 192 7.0 16.0 0.00 0.39 0.01 52 1045.4
20260510150001 71 195 7.0 16.0 0.00 0.39 0.01 53 1045.4
20260510145952 71 186 7.0 16.0 0.00 0.39 0.01 52 1045.2
20260510145941 71 187 7.0 16.0 0.00 0.39 0.01 53 1045.4
20260510145711 71 220 6.0 15.0 0.00 0.39 0.01 52 1045.2
20260510145704 71 175 6.0 15.0 0.00 0.39 0.01 53 1045.2
20260510145343 71 201 6.0 15.0 0.00 0.39 0.01 52 1045.4
20260510145243 71 215 5.0 15.0 0.00 0.39 0.01 52 1045.4
20260510145224 71 160 5.0 14.0 0.00 0.40 0.01 52 1045.4
20260510145217 71 125 5.0 14.0 0.00 0.40 0.01 53 1045.4
20260510145205 71 278 6.0 12.0 0.00 0.40 0.01 53 1045.4
20260510144841 71 217 6.0 15.0 0.00 0.40 0.01 53 1045.4
20260510144740 71 267 7.0 15.0 0.00 0.40 0.01 52 1045.4
20260510144704 71 168 7.0 17.0 0.00 0.40 0.01 51 1045.4
20260510144640 71 189 7.0 17.0 0.00 0.40 0.01 52 1045.4
20260510144559 71 230 7.0 17.0 0.00 0.40 0.01 52 1045.4
20260510144550 71 211 8.0 17.0 0.00 0.40 0.01 52 1045.4
20260510144539 71 229 8.0 17.0 0.00 0.40 0.01 52 1045.4
20260510144306 71 223 8.0 17.0 0.00 0.40 0.01 51 1045.4
20260510144259 71 136 8.0 17.0 0.00 0.40 0.01 51 1045.5
20260510143936 71 210 7.0 17.0 0.00 0.40 0.01 53 1045.6
20260510143836 71 289 7.0 17.0 0.00 0.40 0.01 53 1045.4
20260510143734 71 216 7.0 17.0 0.00 0.40 0.01 54 1045.4
20260510143704 71 195 7.0 14.0 0.00 0.40 0.01 54 1045.4
20260510143649 71 195 7.0 14.0 0.00 0.40 0.01 54 1045.5
20260510143639 71 227 6.0 14.0 0.00 0.40 0.01 54 1045.5
20260510143627 71 221 6.0 13.0 0.00 0.40 0.01 54 1045.4
20260510143619 71 206 6.0 13.0 0.00 0.40 0.01 55 1045.5
20260510143610 71 171 6.0 13.0 0.00 0.40 0.01 54 1045.4
20260510143557 71 179 6.0 13.0 0.00 0.40 0.01 55 1045.4
20260510143325 71 174 6.0 13.0 0.00 0.40 0.01 55 1045.4
20260510142731 71 158 5.0 13.0 0.00 0.40 0.01 56 1045.5
20260510142703 71 205 5.0 13.0 0.00 0.40 0.01 56 1045.5
20260510142630 71 211 5.0 12.0 0.00 0.40 0.01 56 1045.4
20260510142530 71 209 5.0 12.0 0.00 0.40 0.01 56 1045.4
20260510142503 71 210 5.0 12.0 0.00 0.40 0.01 56 1045.5
20260510142455 71 171 5.0 12.0 0.00 0.40 0.01 57 1045.4
20260510142203 71 191 5.0 12.0 0.00 0.40 0.01 56 1045.5
20260510142128 71 193 5.0 12.0 0.00 0.40 0.01 57 1045.6
20260510142050 70 192 5.0 12.0 0.00 0.40 0.01 58 1045.5
20260510142041 70 201 5.0 12.0 0.00 0.40 0.01 58 1045.6
20260510142030 70 106 6.0 12.0 0.00 0.40 0.01 59 1045.6
20260510142020 70 197 6.0 12.0 0.00 0.40 0.01 57 1045.6
20260510141749 70 213 7.0 12.0 0.00 0.40 0.01 57 1045.7
20260510141425 70 179 6.0 12.0 0.00 0.40 0.01 56 1045.8
20260510141325 71 160 6.0 12.0 0.00 0.40 0.01 57 1045.8
20260510141224 71 218 6.0 12.0 0.00 0.40 0.01 56 1045.8
20260510141201 71 210 6.0 12.0 0.00 0.41 0.01 56 1045.8
20260510141124 71 179 6.0 12.0 0.00 0.41 0.01 56 1045.8
20260510141024 71 232 6.0 12.0 0.00 0.41 0.01 56 1045.9
20260510140922 71 167 6.0 12.0 0.00 0.41 0.01 55 1045.9
20260510140823 71 183 6.0 12.0 0.00 0.41 0.01 57 1045.9
20260510140803 71 199 6.0 12.0 0.00 0.41 0.01 57 1045.9
20260510140753 71 143 6.0 12.0 0.00 0.41 0.01 57 1045.9
20260510140746 71 191 5.0 12.0 0.00 0.41 0.01 58 1046.0
20260510140429 71 142 6.0 12.0 0.00 0.41 0.01 57 1045.9
20260510140420 71 181 5.0 13.0 0.00 0.41 0.01 58 1046.0
20260510140406 71 198 5.0 13.0 0.00 0.41 0.01 59 1046.0
20260510140354 71 183 5.0 13.0 0.00 0.41 0.01 59 1046.0
20260510140132 71 173 5.0 13.0 0.00 0.41 0.01 59 1045.9
20260510135811 71 241 5.0 13.0 0.00 0.41 0.01 58 1045.9
20260510135712 71 208 5.0 13.0 0.00 0.41 0.01 60 1046.0
20260510135701 71 210 5.0 13.0 0.00 0.41 0.01 60 1046.0
20260510135612 71 115 5.0 13.0 0.00 0.41 0.01 60 1045.9
20260510135507 71 254 5.0 13.0 0.00 0.41 0.01 61 1045.9
20260510135404 71 254 4.0 13.0 0.00 0.42 0.01 63 1045.9
20260510135306 71 133 4.0 12.0 0.00 0.42 0.01 62 1045.9
20260510135217 71 259 4.0 12.0 0.00 0.42 0.01 61 1046.0
20260510135202 71 259 4.0 12.0 0.00 0.42 0.01 61 1046.0
20260510135105 71 259 5.0 12.0 0.00 0.42 0.01 61 1046.0
20260510134955 71 271 4.0 12.0 0.00 0.43 0.01 60 1046.0
20260510134921 71 178 4.0 12.0 0.00 0.43 0.01 60 1046.0
20260510134911 71 185 4.0 12.0 0.00 0.43 0.01 61 1046.0
20260510134854 71 179 3.0 12.0 0.00 0.43 0.01 62 1046.1
20260510134622 71 188 3.0 9.0 0.00 0.43 0.01 65 1046.0
20260510134613 70 168 3.0 9.0 0.00 0.43 0.01 66 1046.0
20260510134606 70 167 3.0 9.0 0.00 0.43 0.01 65 1046.0
20260510134543 70 168 3.0 9.0 0.00 0.43 0.01 66 1046.0
20260510133743 70 172 4.0 9.0 0.00 0.43 0.01 65 1046.1
20260510133700 70 174 4.0 9.0 0.00 0.43 0.01 64 1046.1
20260510133642 70 172 4.0 9.0 0.00 0.43 0.01 64 1046.2
20260510133542 70 167 4.0 9.0 0.00 0.43 0.01 64 1046.2
20260510133433 69 191 4.0 9.0 0.00 0.43 0.01 65 1046.2
20260510133406 69 191 4.0 9.0 0.00 0.44 0.01 65 1046.2
20260510133359 69 191 4.0 9.0 0.00 0.44 0.01 65 1046.3
20260510133349 69 186 4.0 9.0 0.00 0.44 0.01 65 1046.3
20260510133334 69 233 4.0 8.0 0.00 0.44 0.01 64 1046.3
20260510133112 69 233 4.0 8.0 0.00 0.44 0.01 64 1046.3
20260510132838 69 228 4.0 8.0 0.00 0.44 0.01 64 1046.3
20260510132828 69 228 4.0 8.0 0.00 0.44 0.01 64 1046.3
20260510132821 69 228 4.0 8.0 0.00 0.44 0.01 64 1046.4
20260510132804 69 232 3.0 7.0 0.00 0.44 0.01 64 1046.4
20260510132739 69 240 3.0 7.0 0.00 0.44 0.01 64 1046.4
20260510132731 69 240 4.0 7.0 0.00 0.44 0.01 64 1046.4
20260510132505 69 240 3.0 7.0 0.00 0.44 0.01 63 1046.4
20260510132456 69 240 3.0 7.0 0.00 0.44 0.01 63 1046.3
20260510132443 69 240 4.0 6.0 0.00 0.44 0.01 64 1046.4
20260510131656 69 239 4.0 8.0 0.00 0.44 0.01 63 1046.4
20260510131611 69 239 4.0 8.0 0.00 0.44 0.01 63 1046.4
20260510131510 69 239 4.0 10.0 0.00 0.44 0.01 63 1046.4
20260510131406 69 239 5.0 10.0 0.00 0.44 0.01 63 1046.4
20260510131348 69 238 4.0 10.0 0.00 0.44 0.01 63 1046.4
20260510131342 69 239 4.0 10.0 0.00 0.44 0.01 62 1046.5
20260510131329 69 239 5.0 10.0 0.00 0.44 0.01 62 1046.5
20260510131033 70 249 4.0 10.0 0.00 0.44 0.01 61 1046.4
20260510131023 70 230 4.0 10.0 0.00 0.44 0.01 61 1046.4
20260510130702 70 231 4.0 10.0 0.00 0.44 0.01 61 1046.4
20260510130640 70 226 4.0 10.0 0.00 0.44 0.01 62 1046.5
20260510130602 70 227 4.0 9.0 0.00 0.44 0.01 62 1046.5
20260510130500 70 233 4.0 9.0 0.00 0.44 0.01 63 1046.5
20260510130437 70 257 3.0 9.0 0.00 0.44 0.01 62 1046.5
20260510130429 70 257 3.0 9.0 0.00 0.44 0.01 62 1046.4
20260510130147 70 260 4.0 9.0 0.00 0.44 0.01 62 1046.5
20260510130141 70 260 4.0 9.0 0.00 0.44 0.01 62 1046.5
20260510125802 70 252 4.0 13.0 0.00 0.44 0.01 62 1046.5
20260510125752 70 252 4.0 13.0 0.00 0.44 0.01 62 1046.5
20260510125741 70 252 4.0 13.0 0.00 0.44 0.01 62 1046.5
20260510125734 70 253 4.0 13.0 0.00 0.44 0.01 62 1046.5
20260510125400 70 204 5.0 13.0 0.00 0.44 0.01 61 1046.5
20260510125257 71 204 5.0 13.0 0.00 0.44 0.01 61 1046.5
20260510125236 71 204 5.0 13.0 0.00 0.44 0.01 60 1046.5
20260510125226 71 203 5.0 13.0 0.00 0.44 0.01 60 1046.4
20260510125217 71 199 5.0 13.0 0.00 0.44 0.01 60 1046.4
20260510124943 71 208 4.0 9.0 0.00 0.44 0.01 61 1046.5
20260510124936 71 239 4.0 9.0 0.00 0.44 0.01 60 1046.4
20260510124920 71 239 4.0 9.0 0.00 0.44 0.01 60 1046.4
20260510124910 71 239 4.0 9.0 0.00 0.44 0.01 60 1046.5
20260510124642 71 245 4.0 9.0 0.00 0.44 0.01 60 1046.5
20260510124633 71 245 4.0 9.0 0.00 0.44 0.01 60 1046.5
20260510124622 71 235 4.0 9.0 0.00 0.44 0.01 60 1046.5
20260510124132 71 235 4.0 9.0 0.00 0.44 0.01 60 1046.5
20260510124121 71 247 4.0 9.0 0.00 0.44 0.01 60 1046.4
20260510124106 71 265 4.0 8.0 0.00 0.44 0.01 59 1046.4
20260510123841 71 241 4.0 9.0 0.00 0.44 0.01 58 1046.4
20260510123833 71 241 4.0 9.0 0.00 0.44 0.01 59 1046.4
20260510123822 71 235 4.0 9.0 0.00 0.44 0.01 59 1046.4
20260510123813 71 235 4.0 9.0 0.00 0.44 0.01 59 1046.4
20260510123326 71 242 5.0 9.0 0.00 0.44 0.01 60 1046.4
20260510123318 71 242 5.0 9.0 0.00 0.44 0.01 59 1046.4
20260510123302 71 249 5.0 9.0 0.00 0.44 0.01 59 1046.4
20260510123253 71 222 5.0 12.0 0.00 0.44 0.01 60 1046.4
20260510123244 71 248 5.0 12.0 0.00 0.44 0.01 61 1046.4
20260510123015 71 264 4.0 12.0 0.00 0.44 0.01 61 1046.4
20260510123007 71 264 4.0 12.0 0.00 0.44 0.01 59 1046.5
20260510122953 71 262 4.0 12.0 0.00 0.44 0.01 59 1046.5
20260510122226 70 218 5.0 12.0 0.00 0.44 0.01 60 1046.6
20260510122218 70 219 5.0 12.0 0.00 0.44 0.01 60 1046.6
20260510122202 70 249 5.0 12.0 0.00 0.44 0.01 60 1046.6
20260510121843 70 235 6.0 13.0 0.00 0.44 0.01 60 1046.6
20260510121738 70 237 7.0 13.0 0.00 0.44 0.01 60 1046.6
20260510121651 70 237 7.0 13.0 0.00 0.44 0.01 59 1046.5
20260510121641 70 237 7.0 13.0 0.00 0.44 0.01 59 1046.6
20260510121629 70 233 7.0 13.0 0.00 0.44 0.01 59 1046.6
20260510121406 70 242 6.0 13.0 0.00 0.44 0.01 59 1046.6
20260510121133 70 246 5.0 13.0 0.00 0.44 0.01 60 1046.6
20260510121038 70 268 5.0 13.0 0.00 0.44 0.01 60 1046.7
20260510120938 70 253 5.0 13.0 0.00 0.44 0.01 60 1046.7
20260510120838 70 226 5.0 13.0 0.00 0.44 0.01 60 1046.7
20260510120742 70 231 5.0 13.0 0.00 0.44 0.01 60 1046.7
20260510120635 70 249 5.0 12.0 0.00 0.44 0.01 61 1046.7
20260510120537 69 241 5.0 12.0 0.00 0.44 0.01 61 1046.8
20260510120444 69 237 4.0 12.0 0.00 0.44 0.01 62 1046.7
20260510120338 69 200 4.0 12.0 0.00 0.44 0.01 61 1046.8
20260510120237 69 234 5.0 12.0 0.00 0.44 0.01 60 1046.8
20260510120140 69 235 5.0 12.0 0.00 0.44 0.01 60 1046.9
20260510120133 69 234 5.0 12.0 0.00 0.44 0.01 60 1046.9
20260510120036 69 234 5.0 12.0 0.00 0.44 0.01 60 1046.8
20260510115934 69 284 4.0 12.0 0.00 0.44 0.01 59 1046.9
20260510115917 69 267 4.0 9.0 0.00 0.44 0.01 59 1046.9
20260510115903 69 234 5.0 9.0 0.00 0.44 0.01 60 1046.9
20260510115633 69 247 5.0 11.0 0.00 0.44 0.01 60 1046.9
20260510115605 69 243 5.0 11.0 0.00 0.44 0.01 59 1046.9
20260510115558 69 243 6.0 11.0 0.00 0.44 0.01 59 1046.9
20260510115232 68 243 6.0 11.0 0.00 0.44 0.01 59 1047.0
20260510115132 68 237 7.0 11.0 0.00 0.44 0.01 59 1046.9
20260510115029 68 237 6.0 11.0 0.00 0.44 0.01 59 1047.0
20260510114931 68 220 6.0 11.0 0.00 0.44 0.01 59 1047.0
20260510114830 68 230 6.0 11.0 0.00 0.44 0.01 59 1047.0
20260510114810 68 243 6.0 11.0 0.00 0.44 0.01 60 1047.0
20260510114756 68 265 5.0 10.0 0.00 0.44 0.01 60 1047.0
20260510114428 68 270 5.0 10.0 0.00 0.44 0.01 61 1047.0
20260510114328 68 268 5.0 10.0 0.00 0.44 0.01 61 1047.0
20260510114227 68 270 5.0 11.0 0.00 0.44 0.01 61 1047.1
20260510114128 68 254 6.0 11.0 0.00 0.44 0.01 61 1047.1
20260510114027 68 272 6.0 15.0 0.00 0.44 0.01 61 1047.1
20260510113928 68 272 6.0 15.0 0.00 0.44 0.01 61 1047.1
20260510113826 68 272 6.0 15.0 0.00 0.44 0.01 62 1047.1
20260510113726 68 258 6.0 15.0 0.00 0.44 0.01 62 1047.1
20260510113639 68 256 7.0 15.0 0.00 0.44 0.01 61 1047.1
20260510113625 68 257 7.0 15.0 0.00 0.44 0.01 61 1047.1
20260510113526 68 256 7.0 15.0 0.00 0.44 0.01 61 1047.2
20260510113426 68 276 7.0 15.0 0.00 0.44 0.01 61 1047.1
20260510113325 68 275 6.0 15.0 0.00 0.44 0.01 61 1047.1
20260510113224 68 255 6.0 15.0 0.00 0.44 0.01 61 1047.1
20260510113122 68 255 5.0 15.0 0.00 0.44 0.01 61 1047.1
20260510113022 68 252 5.0 12.0 0.00 0.44 0.01 61 1047.1
20260510112922 68 270 5.0 12.0 0.00 0.44 0.01 61 1047.1
20260510112910 68 270 5.0 12.0 0.00 0.44 0.01 61 1047.1
20260510112854 68 276 4.0 12.0 0.00 0.44 0.01 61 1047.1
20260510112618 68 260 4.0 12.0 0.00 0.44 0.01 62 1047.1
20260510112545 68 263 4.0 9.0 0.00 0.44 0.01 62 1047.0
20260510112538 68 262 4.0 9.0 0.00 0.44 0.01 62 1047.1
20260510112214 68 253 3.0 9.0 0.00 0.44 0.01 62 1047.0
20260510112143 68 224 3.0 9.0 0.00 0.44 0.01 62 1047.0
20260510112134 68 223 3.0 9.0 0.00 0.44 0.01 62 1047.0
20260510112128 68 221 3.0 9.0 0.00 0.44 0.01 62 1047.0
20260510112114 68 213 4.0 9.0 0.00 0.44 0.01 62 1047.0
20260510112106 68 210 3.0 9.0 0.00 0.44 0.01 61 1047.0
20260510111837 68 264 3.0 9.0 0.00 0.44 0.01 61 1047.0
20260510111541 68 252 2.0 8.0 0.00 0.44 0.01 61 1047.0
20260510111533 68 293 2.0 8.0 0.00 0.44 0.01 60 1047.0
20260510111211 68 302 3.0 8.0 0.00 0.44 0.01 62 1047.1
20260510111112 68 302 2.0 8.0 0.00 0.44 0.01 62 1047.2
20260510111038 68 302 2.0 8.0 0.00 0.44 0.01 64 1047.2
20260510111029 68 293 2.0 8.0 0.00 0.44 0.01 68 1047.2
20260510110711 68 70 2.0 5.0 0.00 0.44 0.01 68 1047.1
20260510110638 68 70 2.0 5.0 0.00 0.44 0.01 68 1047.1
20260510110629 68 70 2.0 5.0 0.00 0.44 0.01 68 1047.1
20260510110308 68 70 2.0 5.0 0.00 0.44 0.01 69 1047.1
20260510110208 68 69 2.0 5.0 0.00 0.44 0.01 69 1047.0
20260510110149 68 69 2.0 5.0 0.00 0.44 0.01 69 1047.1
20260510110142 68 70 2.0 5.0 0.00 0.44 0.01 70 1047.1
20260510110136 68 70 2.0 5.0 0.00 0.44 0.01 70 1047.1
20260510110122 68 70 1.0 5.0 0.00 0.44 0.01 70 1047.1
20260510105852 68 70 1.0 5.0 0.00 0.44 0.01 71 1047.1
20260510105610 67 70 2.0 4.0 0.00 0.44 0.01 70 1047.1
20260510105503 67 70 2.0 5.0 0.00 0.44 0.01 69 1047.1
20260510105402 67 70 2.0 6.0 0.00 0.44 0.01 69 1047.2
20260510105306 67 70 2.0 6.0 0.00 0.44 0.01 70 1047.2
20260510105201 67 70 3.0 6.0 0.00 0.44 0.01 70 1047.2
20260510105101 67 70 3.0 6.0 0.00 0.44 0.01 70 1047.2
20260510105002 67 70 3.0 6.0 0.00 0.44 0.01 69 1047.2
20260510104900 67 70 3.0 6.0 0.00 0.44 0.01 69 1047.2
20260510104800 67 70 3.0 6.0 0.00 0.44 0.01 69 1047.2
20260510104659 67 72 3.0 6.0 0.00 0.44 0.01 69 1047.2
20260510104634 67 70 3.0 6.0 0.00 0.44 0.01 69 1047.3
20260510104600 67 70 3.0 6.0 0.00 0.44 0.01 69 1047.3
20260510104500 67 70 3.0 6.0 0.00 0.44 0.01 69 1047.3
20260510104359 67 71 3.0 5.0 0.00 0.44 0.01 70 1047.3
20260510104256 66 73 3.0 5.0 0.00 0.44 0.01 71 1047.3
20260510104155 66 73 3.0 5.0 0.00 0.44 0.01 71 1047.4
20260510104131 66 73 3.0 7.0 0.00 0.44 0.01 70 1047.4
20260510104056 66 73 3.0 8.0 0.00 0.44 0.01 70 1047.4
20260510103956 66 73 3.0 8.0 0.00 0.44 0.01 70 1047.4
20260510103856 66 73 3.0 8.0 0.00 0.44 0.01 70 1047.4
20260510103755 66 73 4.0 8.0 0.00 0.44 0.01 70 1047.4
20260510103655 66 73 4.0 8.0 0.00 0.44 0.01 69 1047.4
20260510103639 66 74 4.0 8.0 0.00 0.44 0.01 69 1047.5
20260510103626 66 73 4.0 8.0 0.00 0.44 0.01 69 1047.5
20260510103618 66 73 4.0 8.0 0.00 0.44 0.01 69 1047.4
20260510103337 66 73 4.0 8.0 0.00 0.44 0.01 69 1047.5
20260510103329 67 73 4.0 8.0 0.00 0.44 0.01 71 1047.4
20260510103318 67 80 3.0 8.0 0.00 0.44 0.01 71 1047.4
20260510102956 67 81 3.0 8.0 0.00 0.44 0.01 71 1047.4
20260510102855 67 82 3.0 8.0 0.00 0.44 0.01 70 1047.4
20260510102757 67 115 3.0 8.0 0.00 0.44 0.01 70 1047.4
20260510102655 67 152 3.0 8.0 0.00 0.44 0.01 71 1047.3
20260510102632 67 152 3.0 8.0 0.00 0.44 0.01 71 1047.4
20260510102555 67 152 3.0 8.0 0.00 0.44 0.01 72 1047.4
20260510102526 67 153 2.0 8.0 0.00 0.44 0.01 73 1047.4
20260510102518 67 200 3.0 9.0 0.00 0.44 0.01 73 1047.3
20260510102237 67 216 3.0 9.0 0.00 0.44 0.01 74 1047.3
20260510102227 67 216 3.0 9.0 0.00 0.44 0.01 73 1047.4
20260510102218 67 216 3.0 9.0 0.00 0.44 0.01 72 1047.4
20260510101856 67 216 4.0 9.0 0.00 0.44 0.01 71 1047.4
20260510101756 67 216 4.0 9.0 0.00 0.44 0.01 72 1047.4
20260510101632 67 218 4.0 9.0 0.00 0.44 0.01 72 1047.5
20260510101547 67 219 4.0 9.0 0.00 0.44 0.01 72 1047.5
20260510101448 67 219 3.0 9.0 0.00 0.44 0.01 72 1047.5
20260510101347 68 237 3.0 9.0 0.00 0.44 0.01 71 1047.5
20260510101247 68 151 3.0 6.0 0.00 0.44 0.01 70 1047.5
20260510101131 68 147 2.0 6.0 0.00 0.44 0.01 70 1047.5
20260510101048 68 201 2.0 6.0 0.00 0.44 0.01 70 1047.5
20260510100947 68 201 2.0 6.0 0.00 0.44 0.01 69 1047.5
20260510100847 68 200 2.0 6.0 0.00 0.44 0.01 69 1047.5
20260510100748 68 265 2.0 6.0 0.00 0.44 0.01 69 1047.5
20260510100648 68 266 3.0 10.0 0.00 0.44 0.01 69 1047.5
20260510100632 68 266 3.0 15.0 0.00 0.44 0.01 69 1047.4
20260510100618 68 266 3.0 15.0 0.00 0.44 0.01 69 1047.4
20260510100611 68 266 4.0 21.0 0.00 0.44 0.01 69 1047.5
20260510100247 68 266 5.0 21.0 0.00 0.44 0.01 68 1047.5
20260510100132 68 266 5.0 21.0 0.00 0.44 0.01 69 1047.5
20260510100122 68 266 5.0 21.0 0.00 0.44 0.01 69 1047.5
20260510100113 68 266 6.0 21.0 0.00 0.44 0.01 69 1047.5
20260510095748 69 268 6.0 21.0 0.00 0.44 0.01 70 1047.4
20260510095648 69 251 6.0 21.0 0.00 0.44 0.01 71 1047.4
20260510095632 69 241 5.0 21.0 0.00 0.44 0.01 71 1047.3
20260510095547 69 18 5.0 21.0 0.00 0.44 0.01 71 1047.3
20260510095448 69 183 5.0 14.0 0.00 0.44 0.01 72 1047.3
20260510095348 69 170 5.0 16.0 0.00 0.44 0.01 71 1047.3
20260510095247 69 172 6.0 16.0 0.00 0.44 0.01 72 1047.3
20260510095147 69 198 6.0 16.0 0.00 0.44 0.01 72 1047.4
20260510095131 69 197 6.0 16.0 0.00 0.44 0.01 72 1047.4
20260510095053 69 197 6.0 16.0 0.00 0.44 0.01 72 1047.4
20260510094947 69 133 6.0 16.0 0.00 0.44 0.01 71 1047.4
20260510094849 69 133 6.0 16.0 0.00 0.44 0.01 71 1047.3
20260510094839 69 250 6.0 16.0 0.00 0.44 0.01 71 1047.3
20260510094833 69 170 6.0 16.0 0.00 0.44 0.01 70 1047.4
20260510094825 69 230 6.0 16.0 0.00 0.44 0.01 70 1047.4
20260510094812 69 184 6.0 16.0 0.00 0.44 0.01 69 1047.4
20260510094804 69 231 5.0 16.0 0.00 0.44 0.01 68 1047.4
20260510094536 70 192 5.0 11.0 0.00 0.44 0.01 69 1047.5
20260510094309 69 237 5.0 10.0 0.00 0.44 0.01 71 1047.4
20260510094021 69 207 5.0 10.0 0.00 0.44 0.01 71 1047.4
20260510094008 69 206 5.0 10.0 0.00 0.44 0.01 71 1047.3
20260510093643 69 255 6.0 10.0 0.00 0.44 0.01 71 1047.4
20260510093632 69 255 6.0 10.0 0.00 0.44 0.01 70 1047.3
20260510093543 69 231 6.0 10.0 0.00 0.44 0.01 70 1047.3
20260510093453 69 224 6.0 10.0 0.00 0.44 0.01 70 1047.3
20260510093442 69 201 6.0 10.0 0.00 0.44 0.01 70 1047.3
20260510093431 69 191 6.0 10.0 0.00 0.44 0.01 70 1047.4
20260510093414 69 253 6.0 10.0 0.00 0.44 0.01 70 1047.3
20260510093150 69 254 5.0 10.0 0.00 0.44 0.01 69 1047.3
20260510093132 69 278 5.0 10.0 0.00 0.44 0.01 69 1047.3
20260510092906 69 216 4.0 10.0 0.00 0.44 0.01 70 1047.4
20260510092636 69 228 4.0 10.0 0.00 0.44 0.01 70 1047.3
20260510092543 69 212 4.0 10.0 0.00 0.44 0.01 71 1047.3
20260510092444 69 236 3.0 10.0 0.00 0.44 0.01 71 1047.4
20260510092344 68 233 3.0 9.0 0.00 0.44 0.01 71 1047.4
20260510092243 68 248 3.0 8.0 0.00 0.44 0.01 71 1047.4
20260510092133 68 248 3.0 8.0 0.00 0.44 0.01 72 1047.4
20260510092048 68 249 3.0 8.0 0.00 0.44 0.01 71 1047.4
20260510091944 68 242 4.0 8.0 0.00 0.44 0.01 71 1047.4
20260510091843 68 239 4.0 8.0 0.00 0.44 0.01 71 1047.4
20260510091739 68 239 4.0 10.0 0.00 0.44 0.01 71 1047.4
20260510091633 68 239 5.0 10.0 0.00 0.44 0.01 72 1047.4
20260510091540 68 239 6.0 11.0 0.00 0.44 0.01 72 1047.4
20260510091439 68 239 6.0 12.0 0.00 0.44 0.01 73 1047.4
20260510091339 68 246 5.0 12.0 0.00 0.44 0.01 73 1047.4
20260510091240 67 251 5.0 12.0 0.00 0.44 0.01 73 1047.4
20260510091132 67 248 5.0 12.0 0.00 0.44 0.01 73 1047.5
20260510091040 67 255 5.0 12.0 0.00 0.44 0.01 73 1047.5
20260510090939 67 262 6.0 12.0 0.00 0.44 0.01 74 1047.5
20260510090838 67 218 6.0 12.0 0.00 0.44 0.01 74 1047.5
20260510090733 67 231 6.0 12.0 0.00 0.44 0.01 74 1047.5
20260510090640 67 245 5.0 12.0 0.00 0.44 0.01 75 1047.5
20260510090633 67 246 5.0 12.0 0.00 0.44 0.01 75 1047.5
20260510090532 67 278 5.0 12.0 0.00 0.44 0.01 75 1047.5
20260510090430 67 209 6.0 10.0 0.00 0.44 0.01 73 1047.6
20260510090330 67 207 6.0 10.0 0.00 0.44 0.01 73 1047.6
20260510090229 67 208 6.0 10.0 0.00 0.44 0.01 75 1047.6
20260510090132 67 251 6.0 12.0 0.00 0.44 0.01 74 1047.5
20260510090112 67 229 7.0 12.0 0.00 0.44 0.01 75 1047.6
20260510085729 67 234 6.0 12.0 0.00 0.44 0.01 75 1047.5
20260510085638 67 252 7.0 12.0 0.00 0.44 0.01 75 1047.5
20260510085624 67 179 7.0 12.0 0.00 0.44 0.01 75 1047.5
20260510085614 67 221 6.0 12.0 0.00 0.44 0.01 76 1047.6
20260510085343 66 247 5.0 12.0 0.00 0.44 0.01 75 1047.5
20260510085323 66 236 4.0 11.0 0.00 0.44 0.01 76 1047.5
20260510085051 66 239 3.0 10.0 0.00 0.44 0.01 76 1047.5
20260510084717 66 247 2.0 10.0 0.00 0.44 0.01 76 1047.5
20260510084619 66 260 1.0 9.0 0.00 0.44 0.01 77 1047.6
20260510084509 66 260 1.0 9.0 0.00 0.44 0.01 78 1047.6
20260510084438 66 195 1.0 5.0 0.00 0.44 0.01 78 1047.6
20260510084428 65 84 1.0 4.0 0.00 0.44 0.01 79 1047.5
20260510084124 65 83 1.0 6.0 0.00 0.44 0.01 80 1047.6
20260510084115 65 84 2.0 6.0 0.00 0.44 0.01 80 1047.5
20260510084102 65 85 2.0 6.0 0.00 0.44 0.01 80 1047.6
20260510084053 65 84 2.0 6.0 0.00 0.44 0.01 80 1047.6
20260510084045 65 84 2.0 6.0 0.00 0.44 0.01 80 1047.6
20260510083504 64 84 2.0 6.0 0.00 0.44 0.01 80 1047.6
20260510083403 64 84 2.0 6.0 0.00 0.44 0.01 79 1047.6
20260510083301 64 84 2.0 6.0 0.00 0.44 0.01 80 1047.6
20260510083202 64 84 2.0 6.0 0.00 0.44 0.01 80 1047.6
20260510083101 64 83 2.0 5.0 0.00 0.44 0.01 80 1047.6
20260510083001 64 84 2.0 5.0 0.00 0.44 0.01 81 1047.6
20260510082902 64 85 2.0 5.0 0.00 0.44 0.01 82 1047.6
20260510082801 64 85 2.0 5.0 0.00 0.44 0.01 82 1047.6
20260510082700 64 79 2.0 5.0 0.00 0.44 0.01 83 1047.6
20260510082615 64 79 2.0 5.0 0.00 0.44 0.01 83 1047.6
20260510082559 64 79 2.0 5.0 0.00 0.44 0.01 83 1047.6
20260510082457 63 79 2.0 5.0 0.00 0.44 0.01 83 1047.6
20260510082424 63 79 2.0 5.0 0.00 0.44 0.01 84 1047.6
20260510082415 63 79 2.0 5.0 0.00 0.44 0.01 84 1047.6
20260510082112 63 79 3.0 7.0 0.00 0.44 0.01 83 1047.5
20260510082051 63 78 3.0 7.0 0.00 0.44 0.01 83 1047.5
20260510081951 62 79 3.0 7.0 0.00 0.44 0.01 83 1047.6
20260510081849 62 79 3.0 7.0 0.00 0.44 0.01 84 1047.6
20260510081747 62 79 3.0 7.0 0.00 0.44 0.01 84 1047.6
20260510081647 62 79 4.0 7.0 0.00 0.44 0.01 84 1047.6
20260510081612 62 79 4.0 7.0 0.00 0.44 0.01 85 1047.6
20260510081547 62 79 4.0 7.0 0.00 0.44 0.01 85 1047.6
20260510081447 62 79 4.0 7.0 0.00 0.44 0.01 85 1047.7
20260510081411 62 79 4.0 9.0 0.00 0.44 0.01 85 1047.7
20260510081401 62 77 4.0 9.0 0.00 0.44 0.01 85 1047.7
20260510081112 62 60 4.0 9.0 0.00 0.44 0.01 85 1047.7
20260510081042 62 60 4.0 9.0 0.00 0.44 0.01 85 1047.7
20260510080941 62 60 4.0 9.0 0.00 0.44 0.01 85 1047.7
20260510080841 62 60 4.0 9.0 0.00 0.44 0.01 85 1047.7
20260510080735 62 60 4.0 9.0 0.00 0.44 0.01 85 1047.7
20260510080635 62 57 4.0 9.0 0.00 0.44 0.01 85 1047.7
20260510080610 62 56 4.0 9.0 0.00 0.44 0.01 85 1047.7
20260510080559 62 57 3.0 9.0 0.00 0.44 0.01 85 1047.7
20260510080551 62 56 3.0 9.0 0.00 0.44 0.01 85 1047.7
20260510080539 62 114 3.0 7.0 0.00 0.44 0.01 85 1047.7
20260510080312 62 116 3.0 7.0 0.00 0.44 0.01 86 1047.7
20260510080300 62 131 3.0 7.0 0.00 0.44 0.01 86 1047.7
20260510075956 62 132 3.0 7.0 0.00 0.44 0.01 86 1047.6
20260510075942 62 359 2.0 6.0 0.00 0.44 0.01 86 1047.6
20260510075931 62 344 2.0 6.0 0.00 0.44 0.01 86 1047.6
20260510075918 62 343 2.0 6.0 0.00 0.44 0.01 86 1047.6
20260510075653 62 343 2.0 6.0 0.00 0.44 0.01 86 1047.6
20260510075330 61 342 2.0 6.0 0.00 0.44 0.01 86 1047.6
20260510075229 61 341 2.0 6.0 0.00 0.44 0.01 86 1047.6
20260510075106 61 337 2.0 4.0 0.00 0.44 0.01 86 1047.6
20260510075029 61 337 1.0 4.0 0.00 0.44 0.01 87 1047.6
20260510074929 61 337 1.0 4.0 0.00 0.44 0.01 87 1047.6
20260510074829 61 337 1.0 4.0 0.00 0.44 0.01 87 1047.6
20260510074818 61 337 2.0 4.0 0.00 0.44 0.01 87 1047.6
20260510074758 61 337 2.0 4.0 0.00 0.44 0.01 87 1047.6
20260510074429 61 337 2.0 4.0 0.00 0.44 0.01 88 1047.6
20260510074356 61 332 2.0 4.0 0.00 0.44 0.01 88 1047.6
20260510074348 61 332 2.0 4.0 0.00 0.44 0.01 87 1047.6
20260510074106 60 332 2.0 4.0 0.00 0.44 0.01 87 1047.6
20260510074033 60 332 2.0 4.0 0.00 0.44 0.01 87 1047.6
20260510073933 60 332 2.0 4.0 0.00 0.44 0.01 87 1047.6
20260510073924 60 334 2.0 4.0 0.00 0.44 0.01 87 1047.6
20260510073918 60 330 1.0 4.0 0.00 0.44 0.01 87 1047.6
20260510073853 60 330 1.0 4.0 0.00 0.44 0.01 87 1047.6
20260510073842 60 330 1.0 4.0 0.00 0.44 0.01 87 1047.6
20260510073616 60 329 1.0 3.0 0.00 0.44 0.01 88 1047.6
20260510073606 60 329 1.0 3.0 0.00 0.44 0.01 89 1047.5
20260510073334 60 329 1.0 3.0 0.00 0.44 0.01 89 1047.5
20260510073325 60 329 1.0 3.0 0.00 0.44 0.01 89 1047.5
20260510073318 60 329 1.0 3.0 0.00 0.44 0.01 89 1047.5
20260510073050 59 329 1.0 3.0 0.00 0.44 0.01 89 1047.5
20260510072819 59 329 1.0 4.0 0.00 0.44 0.01 89 1047.5
20260510072807 59 329 2.0 4.0 0.00 0.44 0.01 90 1047.5
20260510072227 59 328 2.0 4.0 0.00 0.44 0.01 90 1047.4
20260510072203 58 329 2.0 4.0 0.00 0.44 0.01 90 1047.5
20260510072155 58 328 2.0 4.0 0.00 0.44 0.01 90 1047.5
20260510072144 58 329 2.0 5.0 0.00 0.44 0.01 90 1047.5
20260510072130 58 329 2.0 5.0 0.00 0.44 0.01 90 1047.5
20260510071904 58 329 3.0 5.0 0.00 0.44 0.01 90 1047.4
20260510071609 58 329 3.0 5.0 0.00 0.44 0.01 90 1047.5
20260510071520 58 329 3.0 5.0 0.00 0.44 0.01 90 1047.5
20260510071420 58 329 3.0 5.0 0.00 0.44 0.01 89 1047.4
20260510071319 57 329 3.0 5.0 0.00 0.44 0.01 89 1047.4
20260510071219 57 329 3.0 5.0 0.00 0.44 0.01 90 1047.4
20260510071117 57 331 3.0 5.0 0.00 0.44 0.01 90 1047.5
20260510071106 57 329 3.0 5.0 0.00 0.44 0.01 90 1047.5
20260510071017 57 328 3.0 5.0 0.00 0.44 0.01 90 1047.4
20260510070917 57 325 3.0 5.0 0.00 0.44 0.01 90 1047.5
20260510070815 57 324 3.0 5.0 0.00 0.44 0.01 90 1047.5
20260510070753 57 324 3.0 5.0 0.00 0.44 0.01 90 1047.5
20260510070737 57 324 3.0 5.0 0.00 0.44 0.01 90 1047.4
20260510070424 57 317 3.0 5.0 0.00 0.44 0.01 90 1047.4
20260510070415 57 317 3.0 5.0 0.00 0.44 0.01 90 1047.5
20260510070402 57 312 3.0 4.0 0.00 0.44 0.01 91 1047.4
20260510070346 57 311 3.0 4.0 0.00 0.44 0.01 91 1047.4
20260510065803 57 310 2.0 4.0 0.00 0.44 0.01 92 1047.5
20260510065742 57 308 2.0 4.0 0.00 0.44 0.01 92 1047.4
20260510065725 57 308 2.0 4.0 0.00 0.44 0.01 92 1047.4
20260510065405 57 299 2.0 3.0 0.00 0.44 0.01 92 1047.4
20260510065343 57 299 2.0 3.0 0.00 0.44 0.01 93 1047.4
20260510065335 57 299 1.0 3.0 0.00 0.44 0.01 93 1047.4
20260510065106 57 299 1.0 3.0 0.00 0.44 0.01 93 1047.4
20260510065044 57 299 1.0 3.0 0.00 0.44 0.01 93 1047.4
20260510065034 57 299 1.0 3.0 0.00 0.44 0.01 93 1047.4
20260510064739 57 299 1.0 2.0 0.00 0.44 0.01 93 1047.4
20260510064724 56 299 1.0 2.0 0.00 0.44 0.01 93 1047.3
20260510064711 56 299 1.0 2.0 0.00 0.44 0.01 93 1047.4
20260510064701 56 299 1.0 3.0 0.00 0.44 0.01 93 1047.4
20260510064653 56 299 1.0 3.0 0.00 0.44 0.01 93 1047.4
20260510064631 56 299 1.0 3.0 0.00 0.44 0.01 93 1047.4
20260510064404 56 299 1.0 3.0 0.00 0.44 0.01 93 1047.3
20260510064132 55 298 1.0 3.0 0.00 0.44 0.01 93 1047.4
20260510063621 55 297 1.0 3.0 0.00 0.44 0.01 93 1047.3
20260510063612 55 298 1.0 3.0 0.00 0.44 0.01 93 1047.3
20260510063606 55 298 0.0 3.0 0.00 0.44 0.01 93 1047.3
20260510063242 55 298 0.0 2.0 0.00 0.44 0.01 93 1047.3
20260510063222 55 298 0.0 2.0 0.00 0.44 0.01 93 1047.3
20260510063212 55 298 0.0 2.0 0.00 0.44 0.01 94 1047.3
20260510063204 55 297 0.0 2.0 0.00 0.44 0.01 94 1047.3
20260510062839 54 298 0.0 2.0 0.00 0.44 0.01 93 1047.3
20260510062740 54 297 0.0 2.0 0.00 0.44 0.01 93 1047.3
20260510062643 54 297 0.0 2.0 0.00 0.44 0.01 94 1047.3
20260510062604 54 298 0.0 2.0 0.00 0.44 0.01 94 1047.3
20260510062542 54 298 0.0 2.0 0.00 0.44 0.01 94 1047.3
20260510062441 54 297 1.0 2.0 0.00 0.44 0.01 93 1047.3
20260510062340 54 298 1.0 2.0 0.00 0.44 0.01 93 1047.3
20260510062239 54 297 1.0 2.0 0.00 0.44 0.01 94 1047.3
20260510062139 53 297 1.0 3.0 0.00 0.44 0.01 94 1047.3
20260510062104 53 297 1.0 4.0 0.00 0.44 0.01 93 1047.3
20260510062040 53 298 1.0 4.0 0.00 0.44 0.01 93 1047.3
20260510061939 53 297 1.0 4.0 0.00 0.44 0.01 93 1047.4
20260510061838 53 298 2.0 4.0 0.00 0.44 0.01 93 1047.3
20260510061735 53 297 2.0 4.0 0.00 0.44 0.01 94 1047.3
20260510061636 53 298 2.0 4.0 0.00 0.44 0.01 93 1047.3
20260510061606 53 297 2.0 4.0 0.00 0.44 0.01 93 1047.3
20260510061558 52 298 2.0 4.0 0.00 0.44 0.01 93 1047.3
20260510061544 52 297 3.0 4.0 0.00 0.44 0.01 94 1047.3
20260510061533 52 297 3.0 4.0 0.00 0.44 0.01 94 1047.3
20260510061522 52 297 3.0 4.0 0.00 0.44 0.01 93 1047.3
20260510061252 52 298 2.0 3.0 0.00 0.44 0.01 93 1047.3
20260510061244 52 297 2.0 3.0 0.00 0.44 0.01 94 1047.3
20260510061237 52 297 2.0 3.0 0.00 0.44 0.01 94 1047.3
20260510061230 51 298 2.0 3.0 0.00 0.44 0.01 94 1047.3
20260510060948 51 298 2.0 3.0 0.00 0.44 0.01 93 1047.3
20260510060714 51 297 2.0 3.0 0.00 0.44 0.01 93 1047.2
20260510060132 51 297 2.0 3.0 0.00 0.44 0.01 94 1047.2
20260510060032 51 298 2.0 3.0 0.00 0.44 0.01 93 1047.2
20260510055932 51 297 2.0 4.0 0.00 0.44 0.01 93 1047.2
20260510055832 50 297 2.0 4.0 0.00 0.44 0.01 93 1047.2
20260510055813 50 298 2.0 4.0 0.00 0.44 0.01 94 1047.2
20260510055805 50 297 2.0 4.0 0.00 0.44 0.01 94 1047.2
20260510055755 50 298 2.0 4.0 0.00 0.44 0.01 94 1047.2
20260510055432 50 298 2.0 4.0 0.00 0.44 0.01 93 1047.2
20260510055332 50 297 2.0 4.0 0.00 0.44 0.01 93 1047.2
20260510055233 50 297 2.0 4.0 0.00 0.44 0.01 94 1047.1
20260510055131 50 298 2.0 4.0 0.00 0.44 0.01 94 1047.1
20260510055112 50 297 2.0 4.0 0.00 0.44 0.01 94 1047.1
20260510055105 50 298 2.0 4.0 0.00 0.44 0.01 94 1047.1
20260510055058 49 297 2.0 4.0 0.00 0.44 0.01 94 1047.1
20260510055039 49 297 2.0 4.0 0.00 0.44 0.01 93 1047.2
20260510055031 49 298 2.0 4.0 0.00 0.44 0.01 93 1047.1
20260510054749 49 298 2.0 4.0 0.00 0.44 0.01 93 1047.2
20260510054431 49 297 3.0 4.0 0.00 0.44 0.01 93 1047.2
20260510054332 49 297 3.0 4.0 0.00 0.44 0.01 94 1047.2
20260510054232 49 297 2.0 4.0 0.00 0.44 0.01 94 1047.2
20260510054131 49 297 2.0 4.0 0.00 0.44 0.01 94 1047.2
20260510054033 49 298 2.0 4.0 0.00 0.44 0.01 94 1047.2
20260510053931 49 298 2.0 4.0 0.00 0.44 0.01 94 1047.2
20260510053831 49 298 2.0 4.0 0.00 0.44 0.01 94 1047.2
20260510053738 49 297 2.0 4.0 0.00 0.44 0.01 93 1047.2
20260510053716 49 298 2.0 4.0 0.00 0.44 0.01 93 1047.2
20260510053651 49 298 2.0 4.0 0.00 0.44 0.01 93 1047.2
20260510053329 49 298 2.0 4.0 0.00 0.44 0.01 93 1047.2
20260510053229 48 298 2.0 4.0 0.00 0.44 0.01 94 1047.2
20260510053130 48 298 2.0 4.0 0.00 0.44 0.01 94 1047.1
20260510053104 48 298 2.0 4.0 0.00 0.44 0.01 94 1047.1
20260510053057 48 298 2.0 4.0 0.00 0.44 0.01 94 1047.1
20260510052729 48 298 2.0 3.0 0.00 0.44 0.01 93 1047.2
20260510052627 48 298 2.0 3.0 0.00 0.44 0.01 93 1047.2
20260510052522 48 298 2.0 3.0 0.00 0.44 0.01 93 1047.2
20260510052422 48 297 2.0 4.0 0.00 0.44 0.01 93 1047.2
20260510052321 48 299 2.0 4.0 0.00 0.44 0.01 93 1047.2
20260510052222 48 298 3.0 4.0 0.00 0.44 0.01 94 1047.2
20260510052121 48 298 3.0 4.0 0.00 0.44 0.01 94 1047.3
20260510052044 48 298 3.0 4.0 0.00 0.44 0.01 94 1047.3
20260510052018 48 298 3.0 4.0 0.00 0.44 0.01 94 1047.2
20260510051934 48 298 3.0 4.0 0.00 0.44 0.01 94 1047.2
20260510051926 48 298 3.0 4.0 0.00 0.44 0.01 94 1047.2
20260510051915 47 298 3.0 4.0 0.00 0.44 0.01 94 1047.2
20260510051903 47 299 3.0 4.0 0.00 0.44 0.01 94 1047.2
20260510051633 47 298 2.0 4.0 0.00 0.44 0.01 93 1047.2
20260510051321 47 298 2.0 4.0 0.00 0.44 0.01 93 1047.1
20260510051308 47 299 2.0 4.0 0.00 0.44 0.01 93 1047.1
20260510051300 47 298 2.0 4.0 0.00 0.44 0.01 93 1047.1
20260510051248 47 299 2.0 4.0 0.00 0.44 0.01 93 1047.1
20260510051235 47 298 3.0 4.0 0.00 0.44 0.01 93 1047.1
20260510051007 47 299 3.0 4.0 0.00 0.44 0.01 93 1047.0
20260510050736 47 298 3.0 4.0 0.00 0.44 0.01 93 1047.1
20260510050725 47 298 3.0 4.0 0.00 0.44 0.01 93 1047.1
20260510050718 47 299 3.0 4.0 0.00 0.44 0.01 93 1047.1
20260510050656 47 298 3.0 4.0 0.00 0.44 0.01 93 1047.1
20260510050648 47 299 3.0 4.0 0.00 0.44 0.01 93 1047.1
20260510050420 47 300 3.0 4.0 0.00 0.44 0.01 93 1047.2
20260510050409 47 299 3.0 4.0 0.00 0.44 0.01 93 1047.2
20260510050353 47 300 3.0 4.0 0.00 0.44 0.01 93 1047.1
20260510050345 47 300 2.0 4.0 0.00 0.44 0.01 93 1047.1
20260510045631 47 300 2.0 4.0 0.00 0.44 0.01 93 1047.1
20260510045306 47 299 1.0 4.0 0.00 0.44 0.01 93 1047.1
20260510045205 47 300 1.0 3.0 0.00 0.44 0.01 93 1047.1
20260510045104 47 300 1.0 3.0 0.00 0.44 0.01 93 1047.2
20260510045048 47 301 1.0 3.0 0.00 0.44 0.01 93 1047.1
20260510045036 47 300 1.0 3.0 0.00 0.44 0.01 93 1047.1
20260510045029 47 300 1.0 3.0 0.00 0.44 0.01 93 1047.1
20260510044747 47 300 2.0 3.0 0.00 0.44 0.01 93 1047.2
20260510044739 47 301 2.0 3.0 0.00 0.44 0.01 93 1047.2
20260510044725 47 301 2.0 3.0 0.00 0.44 0.01 93 1047.2
20260510044405 47 300 2.0 3.0 0.00 0.44 0.01 93 1047.2
20260510044320 47 300 2.0 3.0 0.00 0.44 0.01 93 1047.2
20260510044312 47 301 2.0 3.0 0.00 0.44 0.01 93 1047.2
20260510044301 47 301 2.0 3.0 0.00 0.44 0.01 93 1047.2
20260510044001 47 301 2.0 3.0 0.00 0.44 0.01 93 1047.2
20260510043902 47 300 2.0 3.0 0.00 0.44 0.01 93 1047.2
20260510043759 47 301 2.0 3.0 0.00 0.44 0.01 93 1047.2
20260510043657 47 300 2.0 3.0 0.00 0.44 0.01 93 1047.2
20260510043559 47 301 2.0 4.0 0.00 0.44 0.01 93 1047.2
20260510043549 47 301 2.0 4.0 0.00 0.44 0.01 93 1047.3
20260510043454 47 300 2.0 4.0 0.00 0.44 0.01 93 1047.3
20260510043352 47 302 2.0 4.0 0.00 0.44 0.01 93 1047.2
20260510043251 47 300 2.0 4.0 0.00 0.44 0.01 93 1047.3
20260510043228 47 301 2.0 4.0 0.00 0.44 0.01 93 1047.3
20260510043221 47 300 2.0 4.0 0.00 0.44 0.01 93 1047.4
20260510043211 47 301 2.0 4.0 0.00 0.44 0.01 93 1047.4
20260510042845 47 300 2.0 4.0 0.00 0.44 0.01 93 1047.4
20260510042747 47 301 2.0 4.0 0.00 0.44 0.01 93 1047.3
20260510042645 47 300 2.0 4.0 0.00 0.44 0.01 93 1047.4
20260510042613 47 301 2.0 4.0 0.00 0.44 0.01 93 1047.4
20260510042606 47 301 3.0 4.0 0.00 0.44 0.01 93 1047.4
20260510042551 47 301 3.0 4.0 0.00 0.44 0.01 93 1047.4
20260510042543 47 301 3.0 4.0 0.00 0.44 0.01 93 1047.4
20260510042533 47 301 3.0 4.0 0.00 0.44 0.01 93 1047.4
20260510042309 47 301 3.0 4.0 0.00 0.44 0.01 93 1047.4
20260510042300 47 301 3.0 4.0 0.00 0.44 0.01 93 1047.4
20260510042248 47 301 3.0 4.0 0.00 0.44 0.01 93 1047.4
20260510041758 47 301 3.0 5.0 0.00 0.44 0.01 93 1047.3
20260510041510 47 301 3.0 5.0 0.00 0.44 0.01 93 1047.3
20260510041459 47 301 3.0 5.0 0.00 0.44 0.01 93 1047.3
20260510041137 47 301 3.0 5.0 0.00 0.44 0.01 93 1047.3
20260510041035 47 301 3.0 5.0 0.00 0.44 0.01 93 1047.3
20260510040937 47 301 3.0 5.0 0.00 0.44 0.01 93 1047.3
20260510040853 47 301 3.0 5.0 0.00 0.44 0.01 93 1047.3
20260510040844 47 301 2.0 5.0 0.00 0.44 0.01 93 1047.3
20260510040835 47 301 2.0 5.0 0.00 0.44 0.01 93 1047.3
20260510040815 47 301 2.0 4.0 0.00 0.44 0.01 93 1047.3
20260510040547 47 301 2.0 3.0 0.00 0.44 0.01 93 1047.3
20260510040306 47 301 2.0 3.0 0.00 0.44 0.01 93 1047.4
20260510040250 47 301 2.0 3.0 0.00 0.44 0.01 93 1047.4
20260510035936 47 302 2.0 3.0 0.00 0.44 0.01 93 1047.4
20260510035833 47 301 2.0 3.0 0.00 0.44 0.01 93 1047.3
20260510035734 47 301 2.0 3.0 0.00 0.44 0.01 93 1047.3
20260510035634 47 301 2.0 3.0 0.00 0.44 0.01 93 1047.3
20260510035535 47 301 2.0 3.0 0.00 0.44 0.01 93 1047.3
20260510035431 47 301 2.0 3.0 0.00 0.44 0.01 93 1047.3
20260510035331 47 301 2.0 3.0 0.00 0.44 0.01 93 1047.3
20260510035232 47 301 2.0 3.0 0.00 0.44 0.01 93 1047.3
20260510035211 47 301 2.0 3.0 0.00 0.44 0.01 93 1047.3
20260510035156 47 301 2.0 3.0 0.00 0.44 0.01 93 1047.3
20260510034831 47 301 2.0 3.0 0.00 0.44 0.01 93 1047.3
20260510034731 47 301 2.0 3.0 0.00 0.44 0.01 93 1047.3
20260510034631 47 301 2.0 3.0 0.00 0.44 0.01 93 1047.2
20260510034534 47 301 2.0 3.0 0.00 0.44 0.01 93 1047.2
20260510034431 47 301 2.0 3.0 0.00 0.44 0.01 93 1047.2
20260510034349 47 301 2.0 3.0 0.00 0.44 0.01 93 1047.2
20260510034343 48 301 2.0 3.0 0.00 0.44 0.01 93 1047.2
20260510034330 48 301 2.0 3.0 0.00 0.44 0.01 93 1047.2
20260510034314 48 301 2.0 3.0 0.00 0.44 0.01 93 1047.2
20260510033730 48 301 2.0 4.0 0.00 0.44 0.01 93 1047.3
20260510033629 48 301 2.0 4.0 0.00 0.44 0.01 93 1047.3
20260510033535 48 301 2.0 4.0 0.00 0.44 0.01 93 1047.3
20260510033505 48 301 2.0 4.0 0.00 0.44 0.01 93 1047.3
20260510033458 48 301 2.0 4.0 0.00 0.44 0.01 93 1047.3
20260510033446 48 301 2.0 4.0 0.00 0.44 0.01 93 1047.3
20260510033422 48 301 2.0 4.0 0.00 0.44 0.01 93 1047.3
20260510033152 48 301 2.0 4.0 0.00 0.44 0.01 93 1047.3
20260510032829 48 301 2.0 4.0 0.00 0.44 0.01 93 1047.4
20260510032728 48 301 2.0 4.0 0.00 0.44 0.01 93 1047.4
20260510032637 48 301 2.0 4.0 0.00 0.44 0.01 93 1047.3
20260510032621 48 301 2.0 4.0 0.00 0.44 0.01 93 1047.3
20260510032604 48 301 2.0 4.0 0.00 0.44 0.01 93 1047.3
20260510032339 48 301 2.0 4.0 0.00 0.44 0.01 93 1047.3
20260510032328 48 301 2.0 4.0 0.00 0.44 0.01 93 1047.3
20260510032318 48 301 2.0 4.0 0.00 0.44 0.01 93 1047.3
20260510032051 48 301 2.0 4.0 0.00 0.44 0.01 93 1047.3
20260510031729 48 302 2.0 3.0 0.00 0.44 0.01 93 1047.3
20260510031629 48 303 2.0 3.0 0.00 0.44 0.01 93 1047.3
20260510031617 48 302 2.0 3.0 0.00 0.44 0.01 93 1047.3
20260510031607 48 303 2.0 3.0 0.00 0.44 0.01 93 1047.3
20260510031555 48 302 2.0 3.0 0.00 0.44 0.01 93 1047.3
20260510031253 48 302 2.0 3.0 0.00 0.44 0.01 93 1047.3
20260510031247 48 302 2.0 3.0 0.00 0.44 0.01 93 1047.3
20260510031232 48 302 2.0 3.0 0.00 0.44 0.01 93 1047.3
20260510030928 48 302 2.0 3.0 0.00 0.44 0.01 93 1047.3
20260510030829 48 302 2.0 3.0 0.00 0.44 0.01 93 1047.3
20260510030729 48 303 2.0 3.0 0.00 0.44 0.01 93 1047.3
20260510030629 48 302 2.0 3.0 0.00 0.44 0.01 93 1047.3
20260510030608 48 302 2.0 3.0 0.00 0.44 0.01 93 1047.3
20260510030555 48 302 2.0 3.0 0.00 0.44 0.01 93 1047.3
20260510030315 48 302 2.0 3.0 0.00 0.44 0.01 93 1047.3
20260510030018 48 302 2.0 3.0 0.00 0.44 0.01 93 1047.4
20260510025927 48 302 2.0 3.0 0.00 0.44 0.01 93 1047.3
20260510025827 48 302 2.0 3.0 0.00 0.44 0.01 93 1047.4
20260510025726 48 303 2.0 3.0 0.00 0.44 0.01 93 1047.4
20260510025713 48 303 2.0 3.0 0.00 0.44 0.01 93 1047.4
20260510025706 48 302 2.0 3.0 0.00 0.44 0.01 93 1047.4
20260510025658 48 303 2.0 3.0 0.00 0.44 0.01 93 1047.4
20260510025323 48 303 2.0 3.0 0.00 0.44 0.01 93 1047.4
20260510025250 48 302 2.0 3.0 0.00 0.44 0.01 93 1047.4
20260510025243 48 303 2.0 3.0 0.00 0.44 0.01 93 1047.4
20260510025229 48 303 2.0 3.0 0.00 0.44 0.01 93 1047.5
20260510024916 48 302 2.0 3.0 0.00 0.44 0.01 93 1047.4
20260510024813 48 303 2.0 3.0 0.00 0.44 0.01 93 1047.4
20260510024713 48 302 2.0 3.0 0.00 0.44 0.01 93 1047.5
20260510024611 48 302 2.0 3.0 0.00 0.44 0.01 93 1047.5
20260510024515 48 302 2.0 3.0 0.00 0.44 0.01 93 1047.4
20260510024409 48 302 2.0 3.0 0.00 0.44 0.01 93 1047.4
20260510024303 48 303 2.0 3.0 0.00 0.44 0.01 93 1047.4
20260510024249 48 302 2.0 3.0 0.00 0.44 0.01 93 1047.4
20260510024238 48 303 2.0 3.0 0.00 0.44 0.01 93 1047.4
20260510024003 48 302 2.0 3.0 0.00 0.44 0.01 93 1047.4
20260510023904 48 302 2.0 3.0 0.00 0.44 0.01 93 1047.4
20260510023803 48 303 2.0 3.0 0.00 0.44 0.01 93 1047.4
20260510023702 48 302 2.0 3.0 0.00 0.44 0.01 93 1047.4
20260510023603 48 303 2.0 3.0 0.00 0.44 0.01 93 1047.4
20260510023514 48 302 2.0 3.0 0.00 0.44 0.01 93 1047.4
20260510023503 48 359 2.0 3.0 0.00 0.44 0.01 93 1047.4
20260510023403 48 303 2.0 3.0 0.00 0.44 0.01 93 1047.4
20260510023309 48 303 2.0 3.0 0.00 0.44 0.01 93 1047.5
20260510023301 48 303 2.0 3.0 0.00 0.44 0.01 93 1047.5
20260510023250 48 302 2.0 3.0 0.00 0.44 0.01 93 1047.5
20260510023001 48 303 2.0 3.0 0.00 0.44 0.01 93 1047.4
20260510022903 48 302 2.0 3.0 0.00 0.44 0.01 93 1047.5
20260510022801 48 302 2.0 3.0 0.00 0.44 0.01 93 1047.5
20260510022701 48 302 2.0 3.0 0.00 0.44 0.01 93 1047.5
20260510022600 48 303 2.0 3.0 0.00 0.44 0.01 93 1047.5
20260510022513 48 303 2.0 3.0 0.00 0.44 0.01 93 1047.5
20260510022500 48 302 2.0 3.0 0.00 0.44 0.01 93 1047.5
20260510022402 48 302 2.0 4.0 0.00 0.44 0.01 93 1047.5
20260510022301 48 303 2.0 4.0 0.00 0.44 0.01 93 1047.5
20260510022243 48 302 2.0 4.0 0.00 0.44 0.01 93 1047.5
20260510022232 48 303 2.0 4.0 0.00 0.44 0.01 93 1047.6
20260510022000 48 303 2.0 4.0 0.00 0.44 0.01 93 1047.6
20260510021933 48 302 2.0 4.0 0.00 0.44 0.01 93 1047.6
20260510021924 48 303 2.0 4.0 0.00 0.44 0.01 93 1047.6
20260510021601 48 302 2.0 4.0 0.00 0.44 0.01 93 1047.7
20260510021512 48 303 2.0 4.0 0.00 0.44 0.01 93 1047.6
20260510021501 48 302 2.0 4.0 0.00 0.44 0.01 93 1047.6
20260510021359 48 303 2.0 4.0 0.00 0.44 0.01 93 1047.6
20260510021323 49 303 2.0 3.0 0.00 0.44 0.01 93 1047.6
20260510021315 49 302 2.0 3.0 0.00 0.44 0.01 93 1047.6
20260510021015 49 303 2.0 3.0 0.00 0.44 0.01 93 1047.6
20260510020954 49 303 2.0 3.0 0.00 0.44 0.01 93 1047.6
20260510020854 49 302 2.0 4.0 0.00 0.44 0.01 93 1047.7
20260510020755 49 302 2.0 4.0 0.00 0.44 0.01 93 1047.6
20260510020655 49 359 2.0 4.0 0.00 0.44 0.01 93 1047.7
20260510020529 49 302 2.0 4.0 0.00 0.44 0.01 93 1047.7
20260510020522 49 302 2.0 4.0 0.00 0.44 0.01 93 1047.7
20260510020512 49 303 2.0 4.0 0.00 0.44 0.01 93 1047.7
20260510020200 49 303 2.0 4.0 0.00 0.44 0.01 93 1047.6
20260510020152 49 302 2.0 4.0 0.00 0.44 0.01 93 1047.6
20260510020140 49 302 3.0 4.0 0.00 0.44 0.01 93 1047.6
20260510020129 49 302 3.0 4.0 0.00 0.44 0.01 93 1047.6
20260510015753 49 302 3.0 4.0 0.00 0.44 0.01 93 1047.6
20260510015653 49 302 3.0 4.0 0.00 0.44 0.01 93 1047.6
20260510015552 49 302 3.0 4.0 0.00 0.44 0.01 93 1047.6
20260510015512 49 302 3.0 4.0 0.00 0.44 0.01 93 1047.6
20260510015500 49 302 3.0 4.0 0.00 0.44 0.01 93 1047.6
20260510015450 49 303 3.0 4.0 0.00 0.44 0.01 93 1047.6
20260510015443 49 303 3.0 4.0 0.00 0.44 0.01 93 1047.6
20260510015205 49 303 3.0 4.0 0.00 0.44 0.01 93 1047.6
20260510015156 49 303 3.0 4.0 0.00 0.44 0.01 93 1047.5
20260510015147 49 302 3.0 4.0 0.00 0.44 0.01 93 1047.5
20260510015125 49 302 3.0 4.0 0.00 0.44 0.01 93 1047.5
20260510015117 49 303 3.0 4.0 0.00 0.44 0.01 93 1047.6
20260510014848 49 303 3.0 4.0 0.00 0.44 0.01 93 1047.6
20260510014623 49 302 2.0 4.0 0.00 0.44 0.01 93 1047.5
20260510014613 49 302 2.0 4.0 0.00 0.44 0.01 93 1047.6
20260510014605 49 302 2.0 4.0 0.00 0.44 0.01 93 1047.6
20260510014337 49 302 2.0 3.0 0.00 0.44 0.01 93 1047.6
20260510014326 49 303 2.0 3.0 0.00 0.44 0.01 93 1047.7
20260510013747 49 302 2.0 4.0 0.00 0.44 0.01 93 1047.6
20260510013647 49 303 2.0 4.0 0.00 0.44 0.01 93 1047.6
20260510013546 49 303 2.0 4.0 0.01 0.44 0.01 93 1047.6
20260510013512 49 302 2.0 4.0 0.01 0.44 0.01 93 1047.6
20260510013447 49 302 2.0 4.0 0.01 0.44 0.01 93 1047.6
20260510013346 49 303 2.0 4.0 0.01 0.44 0.01 93 1047.6
20260510013246 49 303 2.0 4.0 0.01 0.44 0.01 93 1047.6
20260510013147 49 302 2.0 4.0 0.01 0.44 0.01 93 1047.6
20260510013019 49 302 2.0 4.0 0.01 0.44 0.01 93 1047.6
20260510013012 49 302 2.0 4.0 0.01 0.44 0.01 93 1047.7
20260510013002 49 303 2.0 4.0 0.01 0.44 0.01 93 1047.7
20260510012642 49 304 2.0 4.0 0.01 0.44 0.01 93 1047.6
20260510012543 49 305 2.0 3.0 0.01 0.44 0.01 93 1047.6
20260510012509 49 304 2.0 4.0 0.01 0.44 0.01 93 1047.6
20260510012443 49 304 2.0 4.0 0.01 0.44 0.01 93 1047.6
20260510012342 49 304 2.0 4.0 0.01 0.44 0.01 93 1047.5
20260510012243 49 304 2.0 4.0 0.01 0.44 0.01 93 1047.5
20260510012143 49 304 2.0 4.0 0.01 0.44 0.01 93 1047.5
20260510012044 49 304 2.0 4.0 0.01 0.44 0.01 93 1047.5
20260510012010 49 304 2.0 4.0 0.01 0.44 0.01 93 1047.4
20260510011943 49 304 2.0 4.0 0.01 0.44 0.01 93 1047.4
20260510011843 49 304 2.0 4.0 0.01 0.44 0.01 93 1047.5
20260510011742 49 304 2.0 4.0 0.01 0.44 0.01 93 1047.4
20260510011642 49 304 2.0 4.0 0.01 0.44 0.01 93 1047.5
20260510011543 49 304 2.0 4.0 0.01 0.44 0.01 93 1047.5
20260510011509 49 304 2.0 3.0 0.01 0.44 0.01 93 1047.5
20260510011443 49 304 2.0 3.0 0.01 0.44 0.01 93 1047.5
20260510011342 49 304 2.0 3.0 0.01 0.44 0.01 93 1047.5
20260510011310 49 304 2.0 3.0 0.01 0.44 0.01 93 1047.4
20260510011300 50 304 2.0 3.0 0.01 0.44 0.01 93 1047.4
20260510011011 50 304 2.0 3.0 0.01 0.44 0.01 93 1047.4
20260510010938 50 304 2.0 3.0 0.01 0.44 0.01 93 1047.4
20260510010838 50 304 2.0 4.0 0.01 0.44 0.01 93 1047.4
20260510010803 50 305 2.0 4.0 0.01 0.44 0.01 93 1047.4
20260510010753 50 304 2.0 4.0 0.01 0.44 0.01 93 1047.4
20260510010723 50 304 2.0 4.0 0.01 0.44 0.01 93 1047.3
20260510010459 50 304 2.0 4.0 0.01 0.44 0.01 93 1047.4
20260510010137 50 304 2.0 4.0 0.01 0.44 0.01 93 1047.4
20260510010011 50 304 2.0 4.0 0.01 0.44 0.01 93 1047.4
20260510005952 50 304 3.0 4.0 0.01 0.44 0.01 93 1047.4
20260510005944 50 305 3.0 4.0 0.01 0.44 0.01 93 1047.4
20260510005937 50 304 3.0 4.0 0.01 0.44 0.01 93 1047.4
20260510005650 50 305 3.0 4.0 0.01 0.44 0.01 93 1047.3
20260510005641 50 305 3.0 4.0 0.01 0.44 0.01 93 1047.4
20260510005633 50 305 3.0 5.0 0.01 0.44 0.01 93 1047.4
20260510005625 50 304 3.0 5.0 0.01 0.44 0.01 93 1047.4
20260510005352 50 304 2.0 5.0 0.01 0.44 0.01 93 1047.4
20260510005118 50 305 2.0 5.0 0.01 0.44 0.01 93 1047.4
20260510004849 50 305 2.0 5.0 0.01 0.44 0.01 93 1047.4
20260510004836 50 305 2.0 5.0 0.01 0.44 0.01 93 1047.5
20260510004828 50 306 2.0 5.0 0.01 0.44 0.01 93 1047.5
20260510004557 50 305 2.0 5.0 0.01 0.44 0.01 93 1047.5
20260510004232 50 305 2.0 4.0 0.01 0.44 0.01 93 1047.6
20260510004132 50 306 2.0 4.0 0.01 0.44 0.01 93 1047.6
20260510004033 50 306 2.0 4.0 0.01 0.44 0.01 93 1047.6
20260510004010 50 305 2.0 4.0 0.01 0.44 0.01 93 1047.6
20260510003932 50 305 2.0 4.0 0.01 0.44 0.01 93 1047.6
20260510003833 50 306 2.0 4.0 0.01 0.44 0.01 93 1047.7
20260510003732 50 305 2.0 4.0 0.01 0.44 0.01 93 1047.7
20260510003710 50 306 2.0 4.0 0.01 0.44 0.00 93 1047.7
20260510003652 50 305 3.0 4.0 0.00 0.43 0.00 93 1047.7
20260510003643 50 305 3.0 4.0 0.00 0.43 0.00 93 1047.7
20260510003634 50 305 3.0 4.0 0.00 0.43 0.00 93 1047.8
20260510003626 50 306 3.0 4.0 0.00 0.43 0.00 93 1047.8
20260510003136 50 306 3.0 4.0 0.00 0.43 0.00 93 1047.9
20260510003130 50 306 3.0 4.0 0.00 0.43 0.00 93 1047.8
20260510003107 50 306 3.0 4.0 0.00 0.43 0.00 93 1047.8
20260510003100 50 307 3.0 4.0 0.00 0.43 0.00 93 1047.8
20260510003048 50 306 3.0 4.0 0.00 0.43 0.00 93 1047.7
20260510003027 50 306 2.0 4.0 0.00 0.43 0.00 93 1047.8
20260510002533 50 306 2.0 4.0 0.00 0.43 0.00 93 1047.7
20260510002308 50 307 2.0 4.0 0.00 0.43 0.00 93 1047.8
20260510002014 50 307 2.0 4.0 0.00 0.43 0.00 93 1047.8
20260510002006 50 307 2.0 3.0 0.00 0.43 0.00 93 1047.8
20260510001958 50 307 2.0 3.0 0.00 0.43 0.00 93 1047.8
20260510001634 50 307 2.0 2.0 0.00 0.43 0.00 93 1047.8
20260510001507 50 307 1.0 2.0 0.00 0.43 0.00 93 1047.8
20260510001430 50 307 1.0 2.0 0.00 0.43 0.00 93 1047.8
20260510001329 50 306 1.0 2.0 0.00 0.43 0.00 93 1047.8
20260510001229 50 307 1.0 2.0 0.00 0.43 0.00 93 1047.9
20260510001128 50 307 1.0 2.0 0.00 0.43 0.00 93 1047.9
20260510001059 50 307 1.0 2.0 0.00 0.43 0.00 93 1047.9
20260510001052 50 307 1.0 2.0 0.00 0.43 0.00 93 1047.9
20260510000728 50 307 1.0 2.0 0.00 0.43 0.00 93 1047.9
20260510000629 50 307 0.0 2.0 0.00 0.43 0.00 93 1047.9
20260510000528 50 308 0.0 2.0 0.00 0.43 0.00 93 1047.9
20260510000507 50 307 0.0 2.0 0.00 0.43 0.00 93 1047.9
20260510000429 50 307 0.0 2.0 0.00 0.43 0.00 93 1047.9
20260510000328 50 307 1.0 2.0 0.00 0.43 0.00 93 1047.9
20260510000229 50 307 1.0 2.0 0.00 0.43 0.00 93 1047.9
20260510000129 50 307 1.0 2.0 0.00 0.43 0.00 93 1047.9
20260510000028 50 307 1.0 3.0 0.00 0.43 0.00 93 1047.9
20260510000009 50 359 1.0 3.0 0.00 0.43 0.00 93 1047.9
20260509235928 50 307 1.0 3.0 0.00 0.43 0.00 93 1048.0
20260509235829 50 307 1.0 3.0 0.00 0.43 0.00 93 1048.0
20260509235728 50 307 1.0 3.0 0.00 0.43 0.00 93 1048.0
20260509235629 50 307 2.0 3.0 0.00 0.43 0.00 93 1048.0
20260509235529 50 359 2.0 3.0 0.00 0.43 0.00 93 1048.1
20260509235507 51 307 2.0 3.0 0.00 0.43 0.00 93 1048.1
20260509235429 51 307 2.0 3.0 0.00 0.43 0.00 93 1048.1
20260509235328 51 307 2.0 3.0 0.00 0.43 0.00 93 1048.1
20260509235228 51 307 2.0 3.0 0.00 0.43 0.00 93 1048.1
20260509235129 51 307 2.0 3.0 0.00 0.43 0.00 93 1048.1
20260509235059 51 307 2.0 3.0 0.00 0.43 0.00 93 1048.1
20260509235051 51 306 2.0 3.0 0.00 0.43 0.00 93 1048.1
20260509234729 51 307 2.0 3.0 0.00 0.43 0.00 93 1048.2
20260509234715 51 307 2.0 3.0 0.00 0.43 0.00 93 1048.2
20260509234653 51 307 2.0 3.0 0.00 0.43 0.00 93 1048.2
20260509234328 51 307 2.0 3.0 0.00 0.43 0.00 93 1048.2
20260509234245 51 306 2.0 3.0 0.00 0.43 0.00 93 1048.2
20260509234237 51 307 2.0 3.0 0.00 0.43 0.00 93 1048.2
20260509234226 51 307 2.0 3.0 0.00 0.43 0.00 93 1048.2
20260509233951 51 306 2.0 3.0 0.00 0.43 0.00 93 1048.2
20260509233943 51 307 2.0 3.0 0.00 0.43 0.00 93 1048.3
20260509233928 51 307 2.0 3.0 0.00 0.43 0.00 93 1048.4
20260509233649 51 307 2.0 5.0 0.00 0.43 0.00 93 1048.4
20260509233352 51 307 2.0 5.0 0.00 0.43 0.00 93 1048.4
20260509233346 51 306 2.0 5.0 0.00 0.43 0.00 93 1048.4
20260509233006 51 307 3.0 5.0 0.00 0.43 0.00 93 1048.4
20260509232916 51 306 3.0 5.0 0.00 0.43 0.00 93 1048.4
20260509232817 51 307 3.0 5.0 0.00 0.43 0.00 93 1048.4
20260509232717 51 359 3.0 5.0 0.00 0.43 0.00 93 1048.4
20260509232616 51 308 2.0 5.0 0.00 0.43 0.00 93 1048.4
20260509232513 51 308 2.0 5.0 0.00 0.43 0.00 93 1048.4
20260509232412 51 308 2.0 5.0 0.00 0.43 0.00 93 1048.4
20260509232313 51 308 2.0 5.0 0.00 0.43 0.00 93 1048.4
20260509232212 51 308 2.0 5.0 0.00 0.43 0.00 93 1048.4
20260509232112 51 310 2.0 4.0 0.00 0.43 0.00 93 1048.4
20260509232006 51 310 2.0 3.0 0.00 0.43 0.00 93 1048.4
20260509231908 51 359 2.0 3.0 0.00 0.43 0.00 93 1048.4
20260509231808 51 310 2.0 3.0 0.00 0.43 0.00 93 1048.3
20260509231708 51 310 2.0 3.0 0.00 0.43 0.00 93 1048.3
20260509231609 51 310 2.0 3.0 0.00 0.43 0.00 93 1048.3
20260509231515 51 310 2.0 3.0 0.00 0.43 0.00 93 1048.3
20260509231503 51 310 2.0 3.0 0.00 0.43 0.00 93 1048.3
20260509231408 51 310 2.0 3.0 0.00 0.43 0.00 93 1048.3
20260509231306 51 310 2.0 4.0 0.00 0.43 0.00 93 1048.3
20260509231209 51 310 2.0 4.0 0.00 0.43 0.00 93 1048.3